Time,TemperatureF,DewpointF,PressureIn,WindDirection,WindDirectionDegrees,WindSpeedMPH,WindSpeedGustMPH,Humidity,HourlyPrecipIn,Conditions,Clouds,dailyrainin,SoftwareType,DateUTC
2013-02-24 00:03:00,35.2,30.6,30.01,NNW,332,0.0,1.0,83,0.00,,---,0.00,VWS V14.01,2013-02-24 06:03:00,
2013-02-24 00:04:00,35.2,30.6,30.01,NNW,332,0.0,1.0,83,0.00,,---,0.00,VWS V14.01,2013-02-24 06:04:00,
2013-02-24 00:08:00,35.2,30.6,30.01,NNW,332,0.0,1.0,83,0.00,,---,0.00,VWS V14.01,2013-02-24 06:08:00,
2013-02-24 00:09:00,35.2,30.6,30.01,NNW,332,0.0,1.0,83,0.00,,---,0.00,VWS V14.01,2013-02-24 06:09:00,
2013-02-24 00:13:00,35.2,30.6,30.01,North,11,0.0,2.0,83,0.00,,---,0.00,VWS V14.01,2013-02-24 06:13:00,
2013-02-24 00:14:00,35.2,30.6,30.01,North,11,0.0,2.0,83,0.00,,---,0.00,VWS V14.01,2013-02-24 06:14:00,
2013-02-24 00:19:00,35.2,30.6,30.01,North,11,0.0,0.0,83,0.00,,---,0.00,VWS V14.01,2013-02-24 06:19:00,
2013-02-24 00:24:00,35.1,30.5,30.02,North,10,0.0,0.0,83,0.00,,---,0.00,VWS V14.01,2013-02-24 06:24:00,
2013-02-24 00:29:00,34.8,30.2,30.02,North,11,0.0,0.0,83,0.00,,---,0.00,VWS V14.01,2013-02-24 06:29:00,
2013-02-24 00:34:00,34.5,29.9,30.03,North,10,0.0,0.0,83,0.00,,---,0.00,VWS V14.01,2013-02-24 06:34:00,
2013-02-24 00:39:00,34.4,30.1,30.03,North,10,0.0,0.0,84,0.00,,---,0.00,VWS V14.01,2013-02-24 06:39:00,
2013-02-24 00:40:00,34.4,30.1,30.03,North,10,0.0,0.0,84,0.00,,---,0.00,VWS V14.01,2013-02-24 06:40:00,
2013-02-24 00:44:00,34.2,29.9,30.03,North,10,0.0,0.0,84,0.00,,---,0.00,VWS V14.01,2013-02-24 06:44:00,
2013-02-24 00:45:00,34.2,29.9,30.03,North,10,0.0,0.0,84,0.00,,---,0.00,VWS V14.01,2013-02-24 06:45:00,
2013-02-24 00:49:00,34.0,29.7,30.02,North,10,0.0,0.0,84,0.00,,---,0.00,VWS V14.01,2013-02-24 06:49:00,
2013-02-24 00:50:00,34.0,29.7,30.02,North,10,0.0,0.0,84,0.00,,---,0.00,VWS V14.01,2013-02-24 06:50:00,
2013-02-24 00:54:00,33.9,29.9,30.03,North,10,0.0,0.0,85,0.00,,---,0.00,VWS V14.01,2013-02-24 06:54:00,
2013-02-24 00:55:00,33.8,29.8,30.03,North,10,0.0,0.0,85,0.00,,---,0.00,VWS V14.01,2013-02-24 06:55:00,
2013-02-24 00:59:00,33.8,29.8,30.03,North,10,0.0,0.0,85,0.00,,---,0.00,VWS V14.01,2013-02-24 06:59:00,
2013-02-24 01:00:00,33.8,29.8,30.03,North,10,0.0,0.0,85,0.00,,---,0.00,VWS V14.01,2013-02-24 07:00:00,
2013-02-24 01:04:00,33.9,29.9,30.03,North,10,0.0,0.0,85,0.00,,---,0.00,VWS V14.01,2013-02-24 07:04:00,
2013-02-24 01:05:00,33.9,29.9,30.03,North,10,0.0,0.0,85,0.00,,---,0.00,VWS V14.01,2013-02-24 07:05:00,
2013-02-24 01:09:00,34.0,30.0,30.03,North,10,0.0,0.0,85,0.00,,---,0.00,VWS V14.01,2013-02-24 07:09:00,
2013-02-24 01:10:00,34.0,30.0,30.03,North,10,0.0,0.0,85,0.00,,---,0.00,VWS V14.01,2013-02-24 07:10:00,
2013-02-24 01:11:00,34.0,30.0,30.03,North,10,0.0,0.0,85,0.00,,---,0.00,VWS V14.01,2013-02-24 07:11:00,
2013-02-24 01:14:00,33.9,29.9,30.03,North,10,0.0,0.0,85,0.00,,---,0.00,VWS V14.01,2013-02-24 07:14:00,
2013-02-24 01:15:00,33.9,29.9,30.03,North,10,0.0,0.0,85,0.00,,---,0.00,VWS V14.01,2013-02-24 07:15:00,
2013-02-24 01:16:00,33.9,29.9,30.03,North,10,0.0,0.0,85,0.00,,---,0.00,VWS V14.01,2013-02-24 07:16:00,
2013-02-24 01:20:00,34.1,30.1,30.03,NNE,29,0.0,1.0,85,0.00,,---,0.00,VWS V14.01,2013-02-24 07:20:00,
2013-02-24 01:21:00,34.1,30.1,30.03,NNE,29,0.0,1.0,85,0.00,,---,0.00,VWS V14.01,2013-02-24 07:21:00,
2013-02-24 01:25:00,34.4,30.1,30.03,NNE,28,0.0,1.0,84,0.00,,---,0.00,VWS V14.01,2013-02-24 07:25:00,
2013-02-24 01:26:00,34.4,30.1,30.03,NNE,28,0.0,1.0,84,0.00,,---,0.00,VWS V14.01,2013-02-24 07:26:00,
2013-02-24 01:30:00,34.6,30.0,30.03,NNE,28,0.0,1.0,83,0.00,,---,0.00,VWS V14.01,2013-02-24 07:30:00,
2013-02-24 01:31:00,34.6,30.0,30.03,NNE,28,0.0,1.0,83,0.00,,---,0.00,VWS V14.01,2013-02-24 07:31:00,
2013-02-24 01:35:00,34.7,30.1,30.03,NNE,28,0.0,1.0,83,0.00,,---,0.00,VWS V14.01,2013-02-24 07:35:00,
2013-02-24 01:36:00,34.7,30.1,30.03,NNE,28,0.0,1.0,83,0.00,,---,0.00,VWS V14.01,2013-02-24 07:36:00,
2013-02-24 01:37:00,34.7,30.1,30.03,NNE,27,0.0,1.0,83,0.00,,---,0.00,VWS V14.01,2013-02-24 07:37:00,
2013-02-24 01:40:00,34.6,30.0,30.03,NNE,31,0.0,1.0,83,0.00,,---,0.00,VWS V14.01,2013-02-24 07:40:00,
2013-02-24 01:41:00,34.6,30.0,30.03,NNE,29,0.0,1.0,83,0.00,,---,0.00,VWS V14.01,2013-02-24 07:41:00,
2013-02-24 01:42:00,34.5,29.9,30.02,NNE,25,0.0,1.0,83,0.00,,---,0.00,VWS V14.01,2013-02-24 07:42:00,
2013-02-24 01:45:00,34.4,29.8,30.02,NNE,24,0.0,1.0,83,0.00,,---,0.00,VWS V14.01,2013-02-24 07:45:00,
2013-02-24 01:46:00,34.3,29.7,30.02,NNE,24,0.0,0.0,83,0.00,,---,0.00,VWS V14.01,2013-02-24 07:46:00,
2013-02-24 01:47:00,34.3,29.7,30.03,NNE,24,0.0,0.0,83,0.00,,---,0.00,VWS V14.01,2013-02-24 07:47:00,
2013-02-24 01:50:00,34.2,29.6,30.03,NNE,25,0.0,0.0,83,0.00,,---,0.00,VWS V14.01,2013-02-24 07:50:00,
2013-02-24 01:51:00,34.2,29.9,30.03,NNE,24,0.0,0.0,84,0.00,,---,0.00,VWS V14.01,2013-02-24 07:51:00,
2013-02-24 01:52:00,34.1,29.8,30.03,NNE,24,0.0,0.0,84,0.00,,---,0.00,VWS V14.01,2013-02-24 07:52:00,
2013-02-24 01:55:00,34.0,29.7,30.03,NNE,21,0.0,0.0,84,0.00,,---,0.00,VWS V14.01,2013-02-24 07:55:00,
2013-02-24 01:56:00,34.0,29.7,30.03,NNE,20,0.0,0.0,84,0.00,,---,0.00,VWS V14.01,2013-02-24 07:56:00,
2013-02-24 01:57:00,34.0,29.7,30.03,NNE,21,0.0,0.0,84,0.00,,---,0.00,VWS V14.01,2013-02-24 07:57:00,
2013-02-24 02:00:00,33.9,29.6,30.02,NNE,21,0.0,0.0,84,0.00,,---,0.00,VWS V14.01,2013-02-24 08:00:00,
2013-02-24 02:01:00,33.9,29.6,30.03,NNE,22,0.0,0.0,84,0.00,,---,0.00,VWS V14.01,2013-02-24 08:01:00,
2013-02-24 02:02:00,33.9,29.6,30.02,NNE,21,0.0,0.0,84,0.00,,---,0.00,VWS V14.01,2013-02-24 08:02:00,
2013-02-24 02:05:00,33.9,29.6,30.02,NNE,21,0.0,0.0,84,0.00,,---,0.00,VWS V14.01,2013-02-24 08:05:00,
2013-02-24 02:06:00,33.9,29.6,30.02,NNE,21,0.0,0.0,84,0.00,,---,0.00,VWS V14.01,2013-02-24 08:06:00,
2013-02-24 02:07:00,33.9,29.6,30.02,NNE,21,0.0,0.0,84,0.00,,---,0.00,VWS V14.01,2013-02-24 08:07:00,
2013-02-24 02:10:00,33.9,29.6,30.02,NNE,21,0.0,0.0,84,0.00,,---,0.00,VWS V14.01,2013-02-24 08:10:00,
2013-02-24 02:11:00,33.9,29.6,30.02,NNE,21,0.0,0.0,84,0.00,,---,0.00,VWS V14.01,2013-02-24 08:11:00,
2013-02-24 02:12:00,33.9,29.6,30.03,NNE,21,0.0,0.0,84,0.00,,---,0.00,VWS V14.01,2013-02-24 08:12:00,
2013-02-24 02:13:00,33.9,29.6,30.03,NNE,21,0.0,0.0,84,0.00,,---,0.00,VWS V14.01,2013-02-24 08:13:00,
2013-02-24 02:15:00,33.9,29.6,30.03,NNW,329,0.0,0.0,84,0.00,,---,0.00,VWS V14.01,2013-02-24 08:15:00,
2013-02-24 02:16:00,33.8,29.5,30.03,NNW,329,0.0,0.0,84,0.00,,---,0.00,VWS V14.01,2013-02-24 08:16:00,
2013-02-24 02:17:00,33.8,29.5,30.03,NNW,329,0.0,0.0,84,0.00,,---,0.00,VWS V14.01,2013-02-24 08:17:00,
2013-02-24 02:18:00,33.7,29.4,30.03,NNW,329,0.0,0.0,84,0.00,,---,0.00,VWS V14.01,2013-02-24 08:18:00,
2013-02-24 02:20:00,33.7,29.4,30.03,NNW,329,0.0,0.0,84,0.00,,---,0.00,VWS V14.01,2013-02-24 08:20:00,
2013-02-24 02:21:00,33.7,29.4,30.03,NNW,329,0.0,0.0,84,0.00,,---,0.00,VWS V14.01,2013-02-24 08:21:00,
2013-02-24 02:22:00,33.6,29.3,30.03,NNW,329,0.0,0.0,84,0.00,,---,0.00,VWS V14.01,2013-02-24 08:22:00,
2013-02-24 02:23:00,33.6,29.3,30.03,NNW,329,0.0,0.0,84,0.00,,---,0.00,VWS V14.01,2013-02-24 08:23:00,
2013-02-24 02:25:00,33.5,29.5,30.03,NNW,329,0.0,0.0,85,0.00,,---,0.00,VWS V14.01,2013-02-24 08:25:00,
2013-02-24 02:26:00,33.5,29.5,30.03,NNW,330,0.0,0.0,85,0.00,,---,0.00,VWS V14.01,2013-02-24 08:26:00,
2013-02-24 02:27:00,33.5,29.5,30.03,NNW,329,0.0,0.0,85,0.00,,---,0.00,VWS V14.01,2013-02-24 08:27:00,
2013-02-24 02:28:00,33.4,29.4,30.03,NNW,329,0.0,0.0,85,0.00,,---,0.00,VWS V14.01,2013-02-24 08:28:00,
2013-02-24 02:30:00,33.3,29.3,30.03,NNW,329,0.0,0.0,85,0.00,,---,0.00,VWS V14.01,2013-02-24 08:30:00,
2013-02-24 02:31:00,33.3,29.3,30.03,NNW,329,0.0,0.0,85,0.00,,---,0.00,VWS V14.01,2013-02-24 08:31:00,
2013-02-24 02:32:00,33.2,29.2,30.03,NNW,329,0.0,0.0,85,0.00,,---,0.00,VWS V14.01,2013-02-24 08:32:00,
2013-02-24 02:33:00,33.1,29.1,30.03,NNW,329,0.0,0.0,85,0.00,,---,0.00,VWS V14.01,2013-02-24 08:33:00,
2013-02-24 02:35:00,33.0,29.0,30.03,NNW,329,0.0,0.0,85,0.00,,---,0.00,VWS V14.01,2013-02-24 08:35:00,
2013-02-24 02:36:00,33.0,29.0,30.03,NNW,330,0.0,0.0,85,0.00,,---,0.00,VWS V14.01,2013-02-24 08:36:00,
2013-02-24 02:37:00,32.9,28.9,30.03,NNW,329,0.0,0.0,85,0.00,,---,0.00,VWS V14.01,2013-02-24 08:37:00,
2013-02-24 02:38:00,32.8,29.1,30.03,NNW,330,0.0,0.0,86,0.00,,---,0.00,VWS V14.01,2013-02-24 08:38:00,
2013-02-24 02:40:00,32.7,29.0,30.03,NNW,329,0.0,0.0,86,0.00,,---,0.00,VWS V14.01,2013-02-24 08:40:00,
2013-02-24 02:41:00,32.7,29.0,30.03,NNW,329,0.0,0.0,86,0.00,,---,0.00,VWS V14.01,2013-02-24 08:41:00,
2013-02-24 02:42:00,32.7,29.0,30.03,NNW,330,0.0,0.0,86,0.00,,---,0.00,VWS V14.01,2013-02-24 08:42:00,
2013-02-24 02:43:00,32.7,29.3,30.03,NNW,329,0.0,0.0,87,0.00,,---,0.00,VWS V14.01,2013-02-24 08:43:00,
2013-02-24 02:45:00,32.7,29.3,30.03,NNW,329,0.0,0.0,87,0.00,,---,0.00,VWS V14.01,2013-02-24 08:45:00,
2013-02-24 02:46:00,32.7,29.3,30.03,NNW,329,0.0,0.0,87,0.00,,---,0.00,VWS V14.01,2013-02-24 08:46:00,
2013-02-24 02:47:00,32.7,29.3,30.03,NNW,329,0.0,0.0,87,0.00,,---,0.00,VWS V14.01,2013-02-24 08:47:00,
2013-02-24 02:48:00,32.7,29.3,30.03,NNW,330,0.0,0.0,87,0.00,,---,0.00,VWS V14.01,2013-02-24 08:48:00,
2013-02-24 02:50:00,32.6,29.2,30.03,NNW,329,0.0,0.0,87,0.00,,---,0.00,VWS V14.01,2013-02-24 08:50:00,
2013-02-24 02:51:00,32.7,29.3,30.03,NNW,329,0.0,0.0,87,0.00,,---,0.00,VWS V14.01,2013-02-24 08:51:00,
2013-02-24 02:52:00,32.7,29.3,30.03,NNW,329,0.0,0.0,87,0.00,,---,0.00,VWS V14.01,2013-02-24 08:52:00,
2013-02-24 02:53:00,32.8,29.4,30.03,NNW,329,0.0,0.0,87,0.00,,---,0.00,VWS V14.01,2013-02-24 08:53:00,
2013-02-24 02:56:00,32.8,29.4,30.03,NNW,330,0.0,0.0,87,0.00,,---,0.00,VWS V14.01,2013-02-24 08:56:00,
2013-02-24 02:58:00,32.9,29.5,30.03,NNW,329,0.0,0.0,87,0.00,,---,0.00,VWS V14.01,2013-02-24 08:58:00,
2013-02-24 03:01:00,32.9,29.5,30.03,NNW,329,0.0,0.0,87,0.00,,---,0.00,VWS V14.01,2013-02-24 09:01:00,
2013-02-24 03:03:00,32.9,29.5,30.03,NNW,344,0.0,0.0,87,0.00,,---,0.00,VWS V14.01,2013-02-24 09:03:00,
2013-02-24 03:06:00,33.0,29.6,30.02,East,97,0.0,2.0,87,0.00,,---,0.00,VWS V14.01,2013-02-24 09:06:00,
2013-02-24 03:08:00,33.1,29.4,30.02,East,97,1.0,2.0,86,0.00,,---,0.00,VWS V14.01,2013-02-24 09:08:00,
2013-02-24 03:11:00,33.2,29.5,30.02,East,94,1.0,2.0,86,0.00,,---,0.00,VWS V14.01,2013-02-24 09:11:00,
2013-02-24 03:12:00,33.2,29.5,30.02,East,93,0.0,2.0,86,0.00,,---,0.00,VWS V14.01,2013-02-24 09:12:00,
2013-02-24 03:13:00,33.2,29.5,30.02,East,94,0.0,2.0,86,0.00,,---,0.00,VWS V14.01,2013-02-24 09:13:00,
2013-02-24 03:16:00,33.3,29.6,30.02,East,94,1.0,1.0,86,0.00,,---,0.00,VWS V14.01,2013-02-24 09:16:00,
2013-02-24 03:17:00,33.4,29.7,30.02,East,93,0.0,1.0,86,0.00,,---,0.00,VWS V14.01,2013-02-24 09:17:00,
2013-02-24 03:18:00,33.4,29.7,30.02,East,89,0.0,2.0,86,0.00,,---,0.00,VWS V14.01,2013-02-24 09:18:00,
2013-02-24 03:22:00,33.6,29.6,30.02,East,89,0.0,2.0,85,0.00,,---,0.00,VWS V14.01,2013-02-24 09:22:00,
2013-02-24 03:23:00,33.6,29.6,30.02,East,88,0.0,2.0,85,0.00,,---,0.00,VWS V14.01,2013-02-24 09:23:00,
2013-02-24 03:24:00,33.6,29.6,30.02,East,89,0.0,2.0,85,0.00,,---,0.00,VWS V14.01,2013-02-24 09:24:00,
2013-02-24 03:27:00,33.5,29.5,30.02,East,89,0.0,2.0,85,0.00,,---,0.00,VWS V14.01,2013-02-24 09:27:00,
2013-02-24 03:28:00,33.5,29.5,30.02,East,89,0.0,2.0,85,0.00,,---,0.00,VWS V14.01,2013-02-24 09:28:00,
2013-02-24 03:29:00,33.4,29.4,30.02,East,89,0.0,2.0,85,0.00,,---,0.00,VWS V14.01,2013-02-24 09:29:00,
2013-02-24 03:32:00,33.3,29.3,30.02,East,89,0.0,0.0,85,0.00,,---,0.00,VWS V14.01,2013-02-24 09:32:00,
2013-02-24 03:33:00,33.2,29.2,30.02,East,89,0.0,0.0,85,0.00,,---,0.00,VWS V14.01,2013-02-24 09:33:00,
2013-02-24 03:34:00,33.2,29.2,30.02,East,89,0.0,0.0,85,0.00,,---,0.00,VWS V14.01,2013-02-24 09:34:00,
2013-02-24 03:37:00,33.1,29.1,30.02,East,89,0.0,0.0,85,0.00,,---,0.00,VWS V14.01,2013-02-24 09:37:00,
2013-02-24 03:38:00,33.1,29.1,30.02,East,89,0.0,0.0,85,0.00,,---,0.00,VWS V14.01,2013-02-24 09:38:00,
2013-02-24 03:39:00,33.0,29.0,30.02,East,89,0.0,0.0,85,0.00,,---,0.00,VWS V14.01,2013-02-24 09:39:00,
2013-02-24 03:42:00,32.9,28.9,30.02,East,88,0.0,1.0,85,0.00,,---,0.00,VWS V14.01,2013-02-24 09:42:00,
2013-02-24 03:43:00,32.8,29.1,30.02,East,89,0.0,1.0,86,0.00,,---,0.00,VWS V14.01,2013-02-24 09:43:00,
2013-02-24 03:44:00,32.8,29.1,30.02,East,88,0.0,1.0,86,0.00,,---,0.00,VWS V14.01,2013-02-24 09:44:00,
2013-02-24 03:47:00,32.6,28.9,30.02,East,89,0.0,0.0,86,0.00,,---,0.00,VWS V14.01,2013-02-24 09:47:00,
2013-02-24 03:48:00,32.6,28.9,30.03,East,88,0.0,0.0,86,0.00,,---,0.00,VWS V14.01,2013-02-24 09:48:00,
2013-02-24 03:50:00,32.5,28.8,30.03,East,89,0.0,0.0,86,0.00,,---,0.00,VWS V14.01,2013-02-24 09:50:00,
2013-02-24 03:52:00,32.4,29.0,30.03,East,89,0.0,0.0,87,0.00,,---,0.00,VWS V14.01,2013-02-24 09:52:00,
2013-02-24 03:53:00,32.4,29.0,30.03,East,89,0.0,0.0,87,0.00,,---,0.00,VWS V14.01,2013-02-24 09:53:00,
2013-02-24 03:55:00,32.3,28.9,30.03,East,89,0.0,0.0,87,0.00,,---,0.00,VWS V14.01,2013-02-24 09:55:00,
2013-02-24 03:57:00,32.2,28.8,30.03,East,89,0.0,0.0,87,0.00,,---,0.00,VWS V14.01,2013-02-24 09:57:00,
2013-02-24 03:58:00,32.1,28.7,30.04,East,89,0.0,0.0,87,0.00,,---,0.00,VWS V14.01,2013-02-24 09:58:00,
2013-02-24 04:00:00,32.1,28.7,30.04,East,89,0.0,0.0,87,0.00,,---,0.00,VWS V14.01,2013-02-24 10:00:00,
2013-02-24 04:02:00,31.9,28.5,30.04,East,89,0.0,0.0,87,0.00,,---,0.00,VWS V14.01,2013-02-24 10:02:00,
2013-02-24 04:04:00,31.8,28.4,30.04,East,89,0.0,0.0,87,0.00,,---,0.00,VWS V14.01,2013-02-24 10:04:00,
2013-02-24 04:05:00,31.8,28.4,30.03,East,88,0.0,0.0,87,0.00,,---,0.00,VWS V14.01,2013-02-24 10:05:00,
2013-02-24 04:07:00,31.8,28.7,30.03,East,89,0.0,0.0,88,0.00,,---,0.00,VWS V14.01,2013-02-24 10:07:00,
2013-02-24 04:09:00,31.8,28.7,30.03,East,88,0.0,0.0,88,0.00,,---,0.00,VWS V14.01,2013-02-24 10:09:00,
2013-02-24 04:10:00,31.8,28.7,30.02,East,88,1.0,1.0,88,0.00,,---,0.00,VWS V14.01,2013-02-24 10:10:00,
2013-02-24 04:12:00,31.9,28.8,30.02,East,88,1.0,3.0,88,0.00,,---,0.00,VWS V14.01,2013-02-24 10:12:00,
2013-02-24 04:13:00,31.9,28.8,30.02,East,89,0.0,3.0,88,0.00,,---,0.00,VWS V14.01,2013-02-24 10:13:00,
2013-02-24 04:14:00,32.0,28.9,30.02,East,82,3.0,3.0,88,0.00,,---,0.00,VWS V14.01,2013-02-24 10:14:00,
2013-02-24 04:15:00,32.1,29.0,30.02,East,84,0.0,3.0,88,0.00,,---,0.00,VWS V14.01,2013-02-24 10:15:00,
2013-02-24 04:17:00,32.2,29.0,30.02,East,86,0.0,2.0,88,0.00,,---,0.00,VWS V14.01,2013-02-24 10:17:00,
2013-02-24 04:18:00,32.2,29.0,30.02,East,86,0.0,2.0,88,0.00,,---,0.00,VWS V14.01,2013-02-24 10:18:00,
2013-02-24 04:19:00,32.3,29.1,30.02,East,90,0.0,2.0,88,0.00,,---,0.00,VWS V14.01,2013-02-24 10:19:00,
2013-02-24 04:20:00,32.3,29.1,30.02,East,96,0.0,2.0,88,0.00,,---,0.00,VWS V14.01,2013-02-24 10:20:00,
2013-02-24 04:23:00,32.4,29.0,30.02,East,79,0.0,3.0,87,0.00,,---,0.00,VWS V14.01,2013-02-24 10:23:00,
2013-02-24 04:24:00,32.5,29.1,30.02,East,89,3.0,3.0,87,0.00,,---,0.00,VWS V14.01,2013-02-24 10:24:00,
2013-02-24 04:25:00,32.6,29.2,30.02,ENE,76,2.0,3.0,87,0.00,,---,0.00,VWS V14.01,2013-02-24 10:25:00,
2013-02-24 04:28:00,32.7,29.3,30.02,East,79,1.0,3.0,87,0.00,,---,0.00,VWS V14.01,2013-02-24 10:28:00,
2013-02-24 04:29:00,32.8,29.1,30.02,ENE,74,2.0,3.0,86,0.00,,---,0.00,VWS V14.01,2013-02-24 10:29:00,
2013-02-24 04:30:00,32.8,29.1,30.02,East,81,0.0,0.0,86,0.00,,---,0.00,VWS V14.01,2013-02-24 10:30:00,
2013-02-24 04:33:00,32.9,29.2,30.02,East,90,0.0,4.0,86,0.00,,---,0.00,VWS V14.01,2013-02-24 10:33:00,
2013-02-24 04:34:00,32.9,29.2,30.02,East,90,2.0,4.0,86,0.00,,---,0.00,VWS V14.01,2013-02-24 10:34:00,
2013-02-24 04:35:00,32.9,29.2,30.02,East,91,1.0,4.0,86,0.00,,---,0.00,VWS V14.01,2013-02-24 10:35:00,
2013-02-24 04:38:00,32.9,29.2,30.02,East,87,1.0,4.0,86,0.00,,---,0.00,VWS V14.01,2013-02-24 10:38:00,
2013-02-24 04:39:00,32.9,29.2,30.02,ENE,74,0.0,4.0,86,0.00,,---,0.00,VWS V14.01,2013-02-24 10:39:00,
2013-02-24 04:41:00,32.9,29.2,30.02,ENE,74,0.0,4.0,86,0.00,,---,0.00,VWS V14.01,2013-02-24 10:41:00,
2013-02-24 04:43:00,32.9,29.2,30.02,East,84,1.0,4.0,86,0.00,,---,0.00,VWS V14.01,2013-02-24 10:43:00,
2013-02-24 04:44:00,32.8,29.1,30.02,East,83,3.0,4.0,86,0.00,,---,0.00,VWS V14.01,2013-02-24 10:44:00,
2013-02-24 04:46:00,32.9,29.2,30.02,East,93,0.0,2.0,86,0.00,,---,0.00,VWS V14.01,2013-02-24 10:46:00,
2013-02-24 04:48:00,32.8,28.8,30.02,East,91,2.0,3.0,85,0.00,,---,0.00,VWS V14.01,2013-02-24 10:48:00,
2013-02-24 04:49:00,32.8,29.1,30.02,East,92,1.0,4.0,86,0.00,,---,0.00,VWS V14.01,2013-02-24 10:49:00,
2013-02-24 04:51:00,32.8,29.1,30.02,ENE,76,3.0,4.0,86,0.00,,---,0.00,VWS V14.01,2013-02-24 10:51:00,
2013-02-24 04:53:00,32.8,29.1,30.02,East,86,3.0,5.0,86,0.00,,---,0.00,VWS V14.01,2013-02-24 10:53:00,
2013-02-24 04:54:00,32.8,29.1,30.02,East,82,4.0,5.0,86,0.00,,---,0.00,VWS V14.01,2013-02-24 10:54:00,
2013-02-24 04:56:00,32.9,29.2,30.02,ENE,74,2.0,5.0,86,0.00,,---,0.00,VWS V14.01,2013-02-24 10:56:00,
2013-02-24 04:58:00,32.8,29.1,30.02,East,80,1.0,5.0,86,0.00,,---,0.00,VWS V14.01,2013-02-24 10:58:00,
2013-02-24 04:59:00,32.9,29.2,30.02,East,91,2.0,5.0,86,0.00,,---,0.00,VWS V14.01,2013-02-24 10:59:00,
2013-02-24 05:01:00,32.9,29.2,30.02,East,86,2.0,4.0,86,0.00,,---,0.00,VWS V14.01,2013-02-24 11:01:00,
2013-02-24 05:04:00,32.9,29.2,30.03,East,81,4.0,4.0,86,0.00,,---,0.00,VWS V14.01,2013-02-24 11:04:00,
2013-02-24 05:06:00,32.9,29.2,30.03,SE,142,1.0,4.0,86,0.00,,---,0.00,VWS V14.01,2013-02-24 11:06:00,
2013-02-24 05:09:00,32.8,28.8,30.03,SE,143,0.0,4.0,85,0.00,,---,0.00,VWS V14.01,2013-02-24 11:09:00,
2013-02-24 05:10:00,32.8,28.8,30.03,SE,143,0.0,4.0,85,0.00,,---,0.00,VWS V14.01,2013-02-24 11:10:00,
2013-02-24 05:11:00,32.7,29.0,30.03,SE,139,0.0,4.0,86,0.00,,---,0.00,VWS V14.01,2013-02-24 11:11:00,
2013-02-24 05:14:00,32.7,29.0,30.04,SE,139,0.0,4.0,86,0.00,,---,0.00,VWS V14.01,2013-02-24 11:14:00,
2013-02-24 05:15:00,32.7,29.0,30.04,SE,142,0.0,4.0,86,0.00,,---,0.00,VWS V14.01,2013-02-24 11:15:00,
2013-02-24 05:16:00,32.6,28.9,30.04,SE,144,0.0,1.0,86,0.00,,---,0.00,VWS V14.01,2013-02-24 11:16:00,
2013-02-24 05:19:00,32.5,28.8,30.04,SE,145,0.0,0.0,86,0.00,,---,0.00,VWS V14.01,2013-02-24 11:19:00,
2013-02-24 05:20:00,32.5,28.8,30.05,SE,144,0.0,0.0,86,0.00,,---,0.00,VWS V14.01,2013-02-24 11:20:00,
2013-02-24 05:21:00,32.5,28.8,30.05,SE,145,0.0,0.0,86,0.00,,---,0.00,VWS V14.01,2013-02-24 11:21:00,
2013-02-24 05:24:00,32.4,28.7,30.05,SE,146,0.0,0.0,86,0.00,,---,0.00,VWS V14.01,2013-02-24 11:24:00,
2013-02-24 05:25:00,32.3,28.6,30.05,SE,146,0.0,0.0,86,0.00,,---,0.00,VWS V14.01,2013-02-24 11:25:00,
2013-02-24 05:26:00,32.3,28.6,30.05,SE,146,0.0,0.0,86,0.00,,---,0.00,VWS V14.01,2013-02-24 11:26:00,
2013-02-24 05:29:00,32.1,28.4,30.05,SE,146,0.0,0.0,86,0.00,,---,0.00,VWS V14.01,2013-02-24 11:29:00,
2013-02-24 05:30:00,32.1,28.4,30.05,SE,145,0.0,0.0,86,0.00,,---,0.00,VWS V14.01,2013-02-24 11:30:00,
2013-02-24 05:31:00,32.0,28.3,30.05,SE,145,0.0,0.0,86,0.00,,---,0.00,VWS V14.01,2013-02-24 11:31:00,
2013-02-24 05:34:00,31.8,28.4,30.05,SE,146,0.0,0.0,87,0.00,,---,0.00,VWS V14.01,2013-02-24 11:34:00,
2013-02-24 05:35:00,31.7,28.3,30.05,SE,146,0.0,0.0,87,0.00,,---,0.00,VWS V14.01,2013-02-24 11:35:00,
2013-02-24 05:37:00,31.7,28.3,30.05,SE,145,0.0,0.0,87,0.00,,---,0.00,VWS V14.01,2013-02-24 11:37:00,
2013-02-24 05:39:00,31.5,28.1,30.05,SE,146,0.0,0.0,87,0.00,,---,0.00,VWS V14.01,2013-02-24 11:39:00,
2013-02-24 05:41:00,31.4,28.0,30.05,SE,146,0.0,0.0,87,0.00,,---,0.00,VWS V14.01,2013-02-24 11:41:00,
2013-02-24 05:42:00,31.4,28.0,30.05,SE,145,0.0,0.0,87,0.00,,---,0.00,VWS V14.01,2013-02-24 11:42:00,
2013-02-24 05:44:00,31.2,27.8,30.06,SE,145,0.0,0.0,87,0.00,,---,0.00,VWS V14.01,2013-02-24 11:44:00,
2013-02-24 05:46:00,31.1,28.0,30.06,SE,146,0.0,0.0,88,0.00,,---,0.00,VWS V14.01,2013-02-24 11:46:00,
2013-02-24 05:47:00,31.0,27.9,30.06,SE,146,0.0,0.0,88,0.00,,---,0.00,VWS V14.01,2013-02-24 11:47:00,
2013-02-24 05:49:00,30.9,27.8,30.05,SE,146,0.0,0.0,88,0.00,,---,0.00,VWS V14.01,2013-02-24 11:49:00,
2013-02-24 05:50:00,30.9,27.8,30.05,SE,145,1.0,1.0,88,0.00,,---,0.00,VWS V14.01,2013-02-24 11:50:00,
2013-02-24 05:51:00,30.9,27.8,30.05,SE,146,0.0,1.0,88,0.00,,---,0.00,VWS V14.01,2013-02-24 11:51:00,
2013-02-24 05:52:00,30.9,28.0,30.05,SE,145,0.0,1.0,89,0.00,,---,0.00,VWS V14.01,2013-02-24 11:52:00,
2013-02-24 05:54:00,30.9,28.0,30.05,SSE,147,0.0,1.0,89,0.00,,---,0.00,VWS V14.01,2013-02-24 11:54:00,
2013-02-24 05:55:00,30.9,28.0,30.05,SSE,147,0.0,1.0,89,0.00,,---,0.00,VWS V14.01,2013-02-24 11:55:00,
2013-02-24 05:56:00,30.9,28.0,30.06,SSE,148,0.0,1.0,89,0.00,,---,0.00,VWS V14.01,2013-02-24 11:56:00,
2013-02-24 05:57:00,30.9,28.0,30.06,SSE,148,0.0,1.0,89,0.00,,---,0.00,VWS V14.01,2013-02-24 11:57:00,
2013-02-24 05:59:00,30.9,28.0,30.06,SSE,147,0.0,1.0,89,0.00,,---,0.00,VWS V14.01,2013-02-24 11:59:00,
2013-02-24 06:00:00,31.0,28.1,30.06,SSE,147,0.0,1.0,89,0.00,,---,0.00,VWS V14.01,2013-02-24 12:00:00,
2013-02-24 06:01:00,31.0,28.1,30.06,SSE,147,0.0,0.0,89,0.00,,---,0.00,VWS V14.01,2013-02-24 12:01:00,
2013-02-24 06:02:00,31.1,28.2,30.06,SSE,147,0.0,0.0,89,0.00,,---,0.00,VWS V14.01,2013-02-24 12:02:00,
2013-02-24 06:04:00,31.1,28.2,30.06,SSE,147,0.0,0.0,89,0.00,,---,0.00,VWS V14.01,2013-02-24 12:04:00,
2013-02-24 06:05:00,31.1,28.2,30.06,SSE,148,0.0,0.0,89,0.00,,---,0.00,VWS V14.01,2013-02-24 12:05:00,
2013-02-24 06:06:00,31.0,28.1,30.06,SSE,147,0.0,0.0,89,0.00,,---,0.00,VWS V14.01,2013-02-24 12:06:00,
2013-02-24 06:07:00,31.0,28.1,30.06,SSE,148,0.0,0.0,89,0.00,,---,0.00,VWS V14.01,2013-02-24 12:07:00,
2013-02-24 06:09:00,30.9,28.0,30.06,SSE,148,0.0,0.0,89,0.00,,---,0.00,VWS V14.01,2013-02-24 12:09:00,
2013-02-24 06:10:00,30.9,28.0,30.07,SSE,149,0.0,0.0,89,0.00,,---,0.00,VWS V14.01,2013-02-24 12:10:00,
2013-02-24 06:11:00,30.9,28.0,30.06,SSE,149,0.0,0.0,89,0.00,,---,0.00,VWS V14.01,2013-02-24 12:11:00,
2013-02-24 06:13:00,30.8,28.0,30.06,SSE,149,0.0,0.0,89,0.00,,---,0.00,VWS V14.01,2013-02-24 12:13:00,
2013-02-24 06:15:00,30.7,27.9,30.07,SSE,149,0.0,0.0,89,0.00,,---,0.00,VWS V14.01,2013-02-24 12:15:00,
2013-02-24 06:16:00,30.6,27.8,30.07,SSE,149,0.0,0.0,89,0.00,,---,0.00,VWS V14.01,2013-02-24 12:16:00,
2013-02-24 06:18:00,30.6,27.8,30.07,SSE,149,0.0,0.0,89,0.00,,---,0.00,VWS V14.01,2013-02-24 12:18:00,
2013-02-24 06:20:00,30.5,27.6,30.07,SSE,149,0.0,0.0,89,0.00,,---,0.00,VWS V14.01,2013-02-24 12:20:00,
2013-02-24 06:21:00,30.4,27.5,30.07,SSE,149,0.0,0.0,89,0.00,,---,0.00,VWS V14.01,2013-02-24 12:21:00,
2013-02-24 06:23:00,30.4,27.5,30.08,SSE,149,0.0,0.0,89,0.00,,---,0.00,VWS V14.01,2013-02-24 12:23:00,
2013-02-24 06:25:00,30.4,27.5,30.08,SSE,149,0.0,0.0,89,0.00,,---,0.00,VWS V14.01,2013-02-24 12:25:00,
2013-02-24 06:26:00,30.3,27.5,30.08,SSE,149,0.0,0.0,89,0.00,,---,0.00,VWS V14.01,2013-02-24 12:26:00,
2013-02-24 06:28:00,30.3,27.5,30.08,SSE,149,0.0,0.0,89,0.00,,---,0.00,VWS V14.01,2013-02-24 12:28:00,
2013-02-24 06:30:00,30.2,27.6,30.08,SSE,149,0.0,0.0,90,0.00,,---,0.00,VWS V14.01,2013-02-24 12:30:00,
2013-02-24 06:32:00,30.2,27.6,30.08,SSE,149,0.0,0.0,90,0.00,,---,0.00,VWS V14.01,2013-02-24 12:32:00,
2013-02-24 06:33:00,30.2,27.6,30.08,SSE,149,0.0,0.0,90,0.00,,---,0.00,VWS V14.01,2013-02-24 12:33:00,
2013-02-24 06:35:00,30.2,27.6,30.08,SSE,149,0.0,0.0,90,0.00,,---,0.00,VWS V14.01,2013-02-24 12:35:00,
2013-02-24 06:37:00,30.1,27.5,30.09,SSE,149,0.0,0.0,90,0.00,,---,0.00,VWS V14.01,2013-02-24 12:37:00,
2013-02-24 06:38:00,30.1,27.5,30.09,SSE,149,0.0,0.0,90,0.00,,---,0.00,VWS V14.01,2013-02-24 12:38:00,
2013-02-24 06:40:00,30.1,27.5,30.09,SSE,149,0.0,0.0,90,0.00,,---,0.00,VWS V14.01,2013-02-24 12:40:00,
2013-02-24 06:42:00,30.1,27.5,30.09,SSE,149,0.0,0.0,90,0.00,,---,0.00,VWS V14.01,2013-02-24 12:42:00,
2013-02-24 06:43:00,30.0,27.4,30.09,SSE,148,0.0,0.0,90,0.00,,---,0.00,VWS V14.01,2013-02-24 12:43:00,
2013-02-24 06:46:00,29.9,27.3,30.09,SSE,149,0.0,0.0,90,0.00,,---,0.00,VWS V14.01,2013-02-24 12:46:00,
2013-02-24 06:47:00,29.8,27.2,30.09,SSE,149,0.0,0.0,90,0.00,,---,0.00,VWS V14.01,2013-02-24 12:47:00,
2013-02-24 06:48:00,29.8,27.2,30.09,SSE,149,0.0,0.0,90,0.00,,---,0.00,VWS V14.01,2013-02-24 12:48:00,
2013-02-24 06:51:00,29.6,27.0,30.09,SSE,149,0.0,0.0,90,0.00,,---,0.00,VWS V14.01,2013-02-24 12:51:00,
2013-02-24 06:53:00,29.6,27.0,30.09,SSE,149,0.0,0.0,90,0.00,,---,0.00,VWS V14.01,2013-02-24 12:53:00,
2013-02-24 06:54:00,29.6,27.0,30.09,SSE,149,0.0,0.0,90,0.00,,---,0.00,VWS V14.01,2013-02-24 12:54:00,
2013-02-24 06:56:00,29.7,27.4,30.09,SSE,148,0.0,0.0,91,0.00,,---,0.00,VWS V14.01,2013-02-24 12:56:00,
2013-02-24 06:58:00,29.8,27.5,30.09,SSE,149,0.0,0.0,91,0.00,,---,0.00,VWS V14.01,2013-02-24 12:58:00,
2013-02-24 06:59:00,29.8,27.5,30.09,SSE,149,0.0,0.0,91,0.00,,---,0.00,VWS V14.01,2013-02-24 12:59:00,
2013-02-24 07:01:00,30.0,27.7,30.09,SSE,149,0.0,0.0,91,0.00,,---,0.00,VWS V14.01,2013-02-24 13:01:00,
2013-02-24 07:03:00,30.1,27.8,30.09,SSE,149,0.0,0.0,91,0.00,,---,0.00,VWS V14.01,2013-02-24 13:03:00,
2013-02-24 07:04:00,30.1,27.8,30.09,SSE,149,0.0,0.0,91,0.00,,---,0.00,VWS V14.01,2013-02-24 13:04:00,
2013-02-24 07:06:00,30.4,28.4,30.09,SSE,149,0.0,0.0,92,0.00,,---,0.00,VWS V14.01,2013-02-24 13:06:00,
2013-02-24 07:08:00,30.6,28.6,30.09,SSE,148,1.0,1.0,92,0.00,,---,0.00,VWS V14.01,2013-02-24 13:08:00,
2013-02-24 07:09:00,30.7,28.7,30.09,SSE,149,0.0,1.0,92,0.00,,---,0.00,VWS V14.01,2013-02-24 13:09:00,
2013-02-24 07:11:00,31.0,28.7,30.09,SSE,149,0.0,1.0,91,0.00,,---,0.00,VWS V14.01,2013-02-24 13:11:00,
2013-02-24 07:13:00,31.2,28.9,30.09,SE,143,0.0,2.0,91,0.00,,---,0.00,VWS V14.01,2013-02-24 13:13:00,
2013-02-24 07:14:00,31.3,29.0,30.09,SE,143,0.0,2.0,91,0.00,,---,0.00,VWS V14.01,2013-02-24 13:14:00,
2013-02-24 07:17:00,31.8,29.2,30.09,SE,138,1.0,2.0,90,0.00,,---,0.00,VWS V14.01,2013-02-24 13:17:00,
2013-02-24 07:18:00,31.9,29.0,30.09,SE,138,0.0,2.0,89,0.00,,---,0.00,VWS V14.01,2013-02-24 13:18:00,
2013-02-24 07:19:00,32.0,29.1,30.09,SE,137,0.0,2.0,89,0.00,,---,0.00,VWS V14.01,2013-02-24 13:19:00,
2013-02-24 07:22:00,32.3,29.1,30.09,SE,139,0.0,2.0,88,0.00,,---,0.00,VWS V14.01,2013-02-24 13:22:00,
2013-02-24 07:23:00,32.4,29.2,30.09,SE,139,0.0,2.0,88,0.00,,---,0.00,VWS V14.01,2013-02-24 13:23:00,
2013-02-24 07:24:00,32.5,29.4,30.09,SE,138,0.0,2.0,88,0.00,,---,0.00,VWS V14.01,2013-02-24 13:24:00,
2013-02-24 07:27:00,32.7,29.3,30.09,SE,139,0.0,2.0,87,0.00,,---,0.00,VWS V14.01,2013-02-24 13:27:00,
2013-02-24 07:28:00,32.8,29.4,30.09,SE,138,0.0,2.0,87,0.00,,---,0.00,VWS V14.01,2013-02-24 13:28:00,
2013-02-24 07:29:00,32.8,29.4,30.09,SE,138,0.0,2.0,87,0.00,,---,0.00,VWS V14.01,2013-02-24 13:29:00,
2013-02-24 07:32:00,33.1,29.4,30.09,SE,138,0.0,0.0,86,0.00,,---,0.00,VWS V14.01,2013-02-24 13:32:00,
2013-02-24 07:33:00,33.2,29.5,30.09,SE,138,0.0,0.0,86,0.00,,---,0.00,VWS V14.01,2013-02-24 13:33:00,
2013-02-24 07:34:00,33.3,29.6,30.09,SE,138,0.0,0.0,86,0.00,,---,0.00,VWS V14.01,2013-02-24 13:34:00,
2013-02-24 07:37:00,33.5,29.8,30.10,SE,131,1.0,2.0,86,0.00,,---,0.00,VWS V14.01,2013-02-24 13:37:00,
2013-02-24 07:38:00,33.6,29.6,30.10,SE,132,0.0,2.0,85,0.00,,---,0.00,VWS V14.01,2013-02-24 13:38:00,
2013-02-24 07:39:00,33.7,29.7,30.10,East,83,0.0,3.0,85,0.00,,---,0.00,VWS V14.01,2013-02-24 13:39:00,
2013-02-24 07:40:00,33.8,29.5,30.10,East,83,0.0,3.0,84,0.00,,---,0.00,VWS V14.01,2013-02-24 13:40:00,
2013-02-24 07:42:00,34.0,29.7,30.10,East,79,1.0,3.0,84,0.00,,---,0.00,VWS V14.01,2013-02-24 13:42:00,
2013-02-24 07:43:00,34.1,29.8,30.10,ENE,74,0.0,3.0,84,0.00,,---,0.00,VWS V14.01,2013-02-24 13:43:00,
2013-02-24 07:44:00,34.2,29.9,30.10,ENE,74,0.0,3.0,84,0.00,,---,0.00,VWS V14.01,2013-02-24 13:44:00,
2013-02-24 07:45:00,34.3,30.0,30.10,ENE,74,0.0,3.0,84,0.00,,---,0.00,VWS V14.01,2013-02-24 13:45:00,
2013-02-24 07:47:00,34.5,30.2,30.10,ENE,74,1.0,1.0,84,0.00,,---,0.00,VWS V14.01,2013-02-24 13:47:00,
2013-02-24 07:48:00,34.5,29.9,30.10,East,92,1.0,2.0,83,0.00,,---,0.00,VWS V14.01,2013-02-24 13:48:00,
2013-02-24 07:50:00,34.7,30.1,30.10,East,80,1.0,2.0,83,0.00,,---,0.00,VWS V14.01,2013-02-24 13:50:00,
2013-02-24 07:52:00,34.8,29.9,30.10,East,90,1.0,3.0,82,0.00,,---,0.00,VWS V14.01,2013-02-24 13:52:00,
2013-02-24 07:53:00,34.9,30.0,30.10,NNE,27,1.0,3.0,82,0.00,,---,0.00,VWS V14.01,2013-02-24 13:53:00,
2013-02-24 07:55:00,35.0,30.1,30.10,NNE,27,1.0,3.0,82,0.00,,---,0.00,VWS V14.01,2013-02-24 13:55:00,
2013-02-24 07:57:00,35.2,30.3,30.10,East,87,0.0,3.0,82,0.00,,---,0.00,VWS V14.01,2013-02-24 13:57:00,
2013-02-24 07:58:00,35.3,30.4,30.10,East,93,1.0,3.0,82,0.00,,---,0.00,VWS V14.01,2013-02-24 13:58:00,
2013-02-24 08:00:00,35.4,30.2,30.10,ENE,76,1.0,4.0,81,0.00,,---,0.00,VWS V14.01,2013-02-24 14:00:00,
2013-02-24 08:02:00,35.7,30.1,30.10,ENE,70,1.0,2.0,80,0.00,,---,0.00,VWS V14.01,2013-02-24 14:02:00,
2013-02-24 08:03:00,35.7,30.1,30.10,ENE,70,2.0,2.0,80,0.00,,---,0.00,VWS V14.01,2013-02-24 14:03:00,
2013-02-24 08:05:00,35.9,30.3,30.10,East,79,2.0,4.0,80,0.00,,---,0.00,VWS V14.01,2013-02-24 14:05:00,
2013-02-24 08:07:00,36.1,30.2,30.10,ENE,66,1.0,4.0,79,0.00,,---,0.00,VWS V14.01,2013-02-24 14:07:00,
2013-02-24 08:08:00,36.2,30.3,30.10,ESE,107,3.0,4.0,79,0.00,,---,0.00,VWS V14.01,2013-02-24 14:08:00,
2013-02-24 08:10:00,36.3,30.0,30.10,East,94,1.0,5.0,78,0.00,,,0.00,weatherlink.com 1.10,2013-02-24 14:10:00,
2013-02-24 08:11:00,36.3,30.1,30.10,ESE,115,2.0,5.0,78,0.00,,---,0.00,VWS V14.01,2013-02-24 14:11:00,
2013-02-24 08:12:00,36.5,30.3,30.10,ENE,77,5.0,7.0,78,0.00,,---,0.00,VWS V14.01,2013-02-24 14:12:00,
2013-02-24 08:13:00,36.5,30.0,30.10,ENE,74,7.0,7.0,77,0.00,,---,0.00,VWS V14.01,2013-02-24 14:13:00,
2013-02-24 08:15:00,36.6,30.1,30.10,ENE,67,4.0,7.0,77,0.00,,---,0.00,VWS V14.01,2013-02-24 14:15:00,
2013-02-24 08:16:00,36.7,30.2,30.11,NNE,25,2.0,6.0,77,0.00,,---,0.00,VWS V14.01,2013-02-24 14:16:00,
2013-02-24 08:18:00,36.7,30.2,30.10,East,82,4.0,8.0,77,0.00,,---,0.00,VWS V14.01,2013-02-24 14:18:00,
2013-02-24 08:20:00,36.8,30.3,30.10,NE,51,2.0,8.0,77,0.00,,---,0.00,VWS V14.01,2013-02-24 14:20:00,
2013-02-24 08:21:00,36.8,30.3,30.10,ESE,121,1.0,8.0,77,0.00,,---,0.00,VWS V14.01,2013-02-24 14:21:00,
2013-02-24 08:23:00,36.9,30.7,30.10,ENE,76,3.0,8.0,78,0.00,,---,0.00,VWS V14.01,2013-02-24 14:23:00,
2013-02-24 08:25:00,37.0,30.1,30.10,East,83,6.0,9.0,76,0.00,,---,0.00,VWS V14.01,2013-02-24 14:25:00,
2013-02-24 08:26:00,37.1,30.2,30.10,ESE,115,2.0,9.0,76,0.00,,---,0.00,VWS V14.01,2013-02-24 14:26:00,
2013-02-24 08:28:00,37.1,30.2,30.10,East,80,2.0,9.0,76,0.00,,---,0.00,VWS V14.01,2013-02-24 14:28:00,
2013-02-24 08:29:00,37.2,30.7,30.10,East,82,2.0,9.0,77,0.00,,---,0.00,VWS V14.01,2013-02-24 14:29:00,
2013-02-24 08:30:00,37.2,30.4,30.10,East,86,6.0,6.0,76,0.00,,---,0.00,VWS V14.01,2013-02-24 14:30:00,
2013-02-24 08:31:00,37.3,30.4,30.10,East,94,5.0,6.0,76,0.00,,---,0.00,VWS V14.01,2013-02-24 14:31:00,
2013-02-24 08:33:00,37.3,30.4,30.11,ENE,69,1.0,6.0,76,0.00,,---,0.00,VWS V14.01,2013-02-24 14:33:00,
2013-02-24 08:34:00,37.5,31.0,30.11,NE,41,3.0,6.0,77,0.00,,---,0.00,VWS V14.01,2013-02-24 14:34:00,
2013-02-24 08:35:00,37.6,30.7,30.11,ENE,73,5.0,7.0,76,0.00,,---,0.00,VWS V14.01,2013-02-24 14:35:00,
2013-02-24 08:36:00,37.7,30.8,30.11,ESE,118,1.0,7.0,76,0.00,,---,0.00,VWS V14.01,2013-02-24 14:36:00,
2013-02-24 08:38:00,37.8,30.9,30.11,East,82,2.0,7.0,76,0.00,,---,0.00,VWS V14.01,2013-02-24 14:38:00,
2013-02-24 08:39:00,37.9,31.0,30.11,ESE,103,1.0,7.0,76,0.00,,---,0.00,VWS V14.01,2013-02-24 14:39:00,
2013-02-24 08:40:00,38.0,31.1,30.11,East,82,4.0,7.0,76,0.00,,---,0.00,VWS V14.01,2013-02-24 14:40:00,
2013-02-24 08:41:00,38.1,31.2,30.11,East,86,6.0,7.0,76,0.00,,---,0.00,VWS V14.01,2013-02-24 14:41:00,
2013-02-24 08:43:00,38.2,31.0,30.10,NE,55,4.0,7.0,75,0.00,,---,0.00,VWS V14.01,2013-02-24 14:43:00,
2013-02-24 08:44:00,38.3,31.1,30.11,ENE,76,7.0,8.0,75,0.00,,---,0.00,VWS V14.01,2013-02-24 14:44:00,
2013-02-24 08:45:00,38.4,31.2,30.11,ENE,70,3.0,6.0,75,0.00,,---,0.00,VWS V14.01,2013-02-24 14:45:00,
2013-02-24 08:46:00,38.4,30.9,30.11,East,92,5.0,7.0,74,0.00,,---,0.00,VWS V14.01,2013-02-24 14:46:00,
2013-02-24 08:48:00,38.5,31.0,30.11,ENE,74,5.0,8.0,74,0.00,,---,0.00,VWS V14.01,2013-02-24 14:48:00,
2013-02-24 08:49:00,38.5,31.0,30.11,East,86,6.0,8.0,74,0.00,,---,0.00,VWS V14.01,2013-02-24 14:49:00,
2013-02-24 08:50:00,38.6,31.0,30.11,East,84,2.0,8.0,74,0.00,,---,0.00,VWS V14.01,2013-02-24 14:50:00,
2013-02-24 08:52:00,38.7,31.1,30.11,East,80,4.0,8.0,74,0.00,,---,0.00,VWS V14.01,2013-02-24 14:52:00,
2013-02-24 08:53:00,38.7,31.1,30.10,ENE,57,2.0,9.0,74,0.00,,---,0.00,VWS V14.01,2013-02-24 14:53:00,
2013-02-24 08:54:00,38.8,30.9,30.10,ESE,103,2.0,9.0,73,0.00,,---,0.00,VWS V14.01,2013-02-24 14:54:00,
2013-02-24 08:55:00,38.9,31.3,30.11,ENE,70,4.0,9.0,74,0.00,,---,0.00,VWS V14.01,2013-02-24 14:55:00,
2013-02-24 08:57:00,39.0,31.4,30.11,ESE,122,1.0,9.0,74,0.00,,---,0.00,VWS V14.01,2013-02-24 14:57:00,
2013-02-24 08:58:00,39.1,31.5,30.10,ESE,114,4.0,9.0,74,0.00,,---,0.00,VWS V14.01,2013-02-24 14:58:00,
2013-02-24 08:59:00,39.2,31.6,30.10,ESE,105,3.0,9.0,74,0.00,,---,0.00,VWS V14.01,2013-02-24 14:59:00,
2013-02-24 09:01:00,39.3,31.0,30.11,ENE,65,3.0,4.0,72,0.00,,---,0.00,VWS V14.01,2013-02-24 15:01:00,
2013-02-24 09:02:00,39.4,31.1,30.10,NE,55,3.0,6.0,72,0.00,,---,0.00,VWS V14.01,2013-02-24 15:02:00,
2013-02-24 09:03:00,39.5,31.6,30.10,ENE,74,6.0,6.0,73,0.00,,---,0.00,VWS V14.01,2013-02-24 15:03:00,
2013-02-24 09:04:00,39.6,31.3,30.10,ENE,74,3.0,7.0,72,0.00,,---,0.00,VWS V14.01,2013-02-24 15:04:00,
2013-02-24 09:06:00,39.7,31.1,30.10,East,98,2.0,7.0,71,0.00,,---,0.00,VWS V14.01,2013-02-24 15:06:00,
2013-02-24 09:07:00,39.9,31.3,30.10,ENE,74,7.0,7.0,71,0.00,,---,0.00,VWS V14.01,2013-02-24 15:07:00,
2013-02-24 09:08:00,39.9,31.3,30.10,ENE,70,2.0,8.0,71,0.00,,---,0.00,VWS V14.01,2013-02-24 15:08:00,
2013-02-24 09:09:00,40.0,31.0,30.10,East,90,3.0,11.0,70,0.00,,---,0.00,VWS V14.01,2013-02-24 15:09:00,
2013-02-24 09:11:00,40.1,31.1,30.09,ENE,64,2.0,11.0,70,0.00,,---,0.00,VWS V14.01,2013-02-24 15:11:00,
2013-02-24 09:13:00,40.4,32.1,30.09,East,97,2.0,11.0,72,0.00,,---,0.00,VWS V14.01,2013-02-24 15:13:00,
2013-02-24 09:14:00,40.6,32.0,30.09,ENE,70,4.0,11.0,71,0.00,,---,0.00,VWS V14.01,2013-02-24 15:14:00,
2013-02-24 09:16:00,40.9,31.9,30.09,East,80,6.0,6.0,70,0.00,,---,0.00,VWS V14.01,2013-02-24 15:16:00,
2013-02-24 09:18:00,40.9,31.9,30.09,ENE,67,5.0,7.0,70,0.00,,---,0.00,VWS V14.01,2013-02-24 15:18:00,
2013-02-24 09:19:00,41.1,31.7,30.09,ENE,65,5.0,8.0,69,0.00,,---,0.00,VWS V14.01,2013-02-24 15:19:00,
2013-02-24 09:22:00,41.5,32.1,30.09,SE,134,4.0,8.0,69,0.00,,---,0.00,VWS V14.01,2013-02-24 15:22:00,
2013-02-24 09:23:00,41.6,31.5,30.09,ESE,115,5.0,8.0,67,0.00,,---,0.00,VWS V14.01,2013-02-24 15:23:00,
2013-02-24 09:24:00,41.5,31.0,30.09,SE,124,5.0,8.0,66,0.00,,---,0.00,VWS V14.01,2013-02-24 15:24:00,
2013-02-24 09:27:00,41.6,31.5,30.09,ESE,118,3.0,8.0,67,0.00,,---,0.00,VWS V14.01,2013-02-24 15:27:00,
2013-02-24 09:28:00,41.6,31.5,30.09,ESE,121,1.0,8.0,67,0.00,,---,0.00,VWS V14.01,2013-02-24 15:28:00,
2013-02-24 09:29:00,41.7,31.6,30.09,East,89,3.0,8.0,67,0.00,,---,0.00,VWS V14.01,2013-02-24 15:29:00,
2013-02-24 09:30:00,41.7,31.6,30.09,SE,127,3.0,8.0,67,0.00,,---,0.00,VWS V14.01,2013-02-24 15:30:00,
2013-02-24 09:32:00,41.8,31.3,30.09,East,80,1.0,13.0,66,0.00,,---,0.00,VWS V14.01,2013-02-24 15:32:00,
2013-02-24 09:33:00,41.8,31.7,30.09,ESE,107,4.0,13.0,67,0.00,,---,0.00,VWS V14.01,2013-02-24 15:33:00,
2013-02-24 09:34:00,41.9,31.8,30.09,ENE,63,2.0,13.0,67,0.00,,---,0.00,VWS V14.01,2013-02-24 15:34:00,
2013-02-24 09:35:00,42.0,31.9,30.09,East,89,4.0,13.0,67,0.00,,---,0.00,VWS V14.01,2013-02-24 15:35:00,
2013-02-24 09:37:00,42.2,31.7,30.09,ENE,60,4.0,13.0,66,0.00,,---,0.00,VWS V14.01,2013-02-24 15:37:00,
2013-02-24 09:38:00,42.3,32.1,30.09,ESE,114,2.0,13.0,67,0.00,,---,0.00,VWS V14.01,2013-02-24 15:38:00,
2013-02-24 09:39:00,42.4,31.9,30.09,ESE,120,2.0,13.0,66,0.00,,---,0.00,VWS V14.01,2013-02-24 15:39:00,
2013-02-24 09:40:00,42.4,31.9,30.09,ENE,65,4.0,13.0,66,0.00,,---,0.00,VWS V14.01,2013-02-24 15:40:00,
2013-02-24 09:42:00,42.7,32.2,30.09,SE,128,2.0,13.0,66,0.00,,---,0.00,VWS V14.01,2013-02-24 15:42:00,
2013-02-24 09:43:00,42.7,32.2,30.09,ESE,108,4.0,13.0,66,0.00,,---,0.00,VWS V14.01,2013-02-24 15:43:00,
2013-02-24 09:45:00,42.9,32.3,30.09,ESE,121,2.0,13.0,66,0.00,,---,0.00,VWS V14.01,2013-02-24 15:45:00,
2013-02-24 09:47:00,43.2,32.2,30.09,ESE,122,4.0,4.0,65,0.00,,---,0.00,VWS V14.01,2013-02-24 15:47:00,
2013-02-24 09:49:00,43.4,32.0,30.09,East,96,3.0,5.0,64,0.00,,---,0.00,VWS V14.01,2013-02-24 15:49:00,
2013-02-24 09:50:00,43.4,31.7,30.09,ESE,116,5.0,5.0,63,0.00,,---,0.00,VWS V14.01,2013-02-24 15:50:00,
2013-02-24 09:52:00,43.3,31.2,30.09,ESE,121,4.0,8.0,62,0.00,,---,0.00,VWS V14.01,2013-02-24 15:52:00,
2013-02-24 09:54:00,43.3,31.2,30.09,SE,124,6.0,8.0,62,0.00,,---,0.00,VWS V14.01,2013-02-24 15:54:00,
2013-02-24 09:55:00,43.4,31.7,30.09,East,83,3.0,8.0,63,0.00,,---,0.00,VWS V14.01,2013-02-24 15:55:00,
2013-02-24 09:57:00,43.6,31.9,30.09,ESE,118,4.0,8.0,63,0.00,,---,0.00,VWS V14.01,2013-02-24 15:57:00,
2013-02-24 09:59:00,43.7,31.5,30.09,ENE,76,8.0,10.0,62,0.00,,---,0.00,VWS V14.01,2013-02-24 15:59:00,
2013-02-24 10:00:00,43.7,31.5,30.09,East,98,3.0,10.0,62,0.00,,---,0.00,VWS V14.01,2013-02-24 16:00:00,
2013-02-24 10:03:00,43.8,31.2,30.09,ESE,111,3.0,9.0,61,0.00,,---,0.00,VWS V14.01,2013-02-24 16:03:00,
2013-02-24 10:04:00,44.0,31.4,30.09,NE,53,2.0,9.0,61,0.00,,---,0.00,VWS V14.01,2013-02-24 16:04:00,
2013-02-24 10:05:00,44.0,31.8,30.09,ENE,69,7.0,10.0,62,0.00,,---,0.00,VWS V14.01,2013-02-24 16:05:00,
2013-02-24 10:08:00,44.2,31.6,30.09,ESE,102,5.0,10.0,61,0.00,,---,0.00,VWS V14.01,2013-02-24 16:08:00,
2013-02-24 10:09:00,44.3,31.3,30.09,East,97,2.0,10.0,60,0.00,,---,0.00,VWS V14.01,2013-02-24 16:09:00,
2013-02-24 10:10:00,44.3,31.3,30.09,NE,45,3.0,10.0,60,0.00,,---,0.00,VWS V14.01,2013-02-24 16:10:00,
2013-02-24 10:13:00,44.5,31.9,30.09,East,87,5.0,10.0,61,0.00,,---,0.00,VWS V14.01,2013-02-24 16:13:00,
2013-02-24 10:14:00,44.6,31.6,30.09,NNE,15,2.0,10.0,60,0.00,,---,0.00,VWS V14.01,2013-02-24 16:14:00,
2013-02-24 10:15:00,44.7,31.7,30.09,North,356,2.0,10.0,60,0.00,,---,0.00,VWS V14.01,2013-02-24 16:15:00,
2013-02-24 10:18:00,45.1,32.1,30.09,ESE,112,2.0,5.0,60,0.00,,---,0.00,VWS V14.01,2013-02-24 16:18:00,
2013-02-24 10:19:00,45.3,32.7,30.09,East,87,1.0,5.0,61,0.00,,---,0.00,VWS V14.01,2013-02-24 16:19:00,
2013-02-24 10:20:00,45.4,32.3,30.09,NE,56,2.0,5.0,60,0.00,,---,0.00,VWS V14.01,2013-02-24 16:20:00,
2013-02-24 10:21:00,45.4,32.3,30.09,ENE,63,2.0,5.0,60,0.00,,---,0.00,VWS V14.01,2013-02-24 16:21:00,
2013-02-24 10:23:00,45.7,32.2,30.09,NNE,22,3.0,6.0,59,0.00,,---,0.00,VWS V14.01,2013-02-24 16:23:00,
2013-02-24 10:24:00,45.7,31.8,30.09,East,86,2.0,9.0,58,0.00,,---,0.00,VWS V14.01,2013-02-24 16:24:00,
2013-02-24 10:25:00,45.6,31.7,30.09,East,86,8.0,9.0,58,0.00,,---,0.00,VWS V14.01,2013-02-24 16:25:00,
2013-02-24 10:26:00,45.6,31.7,30.09,East,79,7.0,10.0,58,0.00,,---,0.00,VWS V14.01,2013-02-24 16:26:00,
2013-02-24 10:28:00,45.6,31.3,30.09,East,84,8.0,10.0,57,0.00,,---,0.00,VWS V14.01,2013-02-24 16:28:00,
2013-02-24 10:29:00,45.5,31.2,30.09,East,93,3.0,10.0,57,0.00,,---,0.00,VWS V14.01,2013-02-24 16:29:00,
2013-02-24 10:30:00,45.5,31.2,30.09,ENE,75,5.0,6.0,57,0.00,,---,0.00,VWS V14.01,2013-02-24 16:30:00,
2013-02-24 10:31:00,45.5,31.6,30.09,ENE,58,4.0,6.0,58,0.00,,---,0.00,VWS V14.01,2013-02-24 16:31:00,
2013-02-24 10:33:00,45.8,31.9,30.09,ESE,119,2.0,6.0,58,0.00,,---,0.00,VWS V14.01,2013-02-24 16:33:00,
2013-02-24 10:34:00,45.9,32.0,30.09,North,353,2.0,6.0,58,0.00,,---,0.00,VWS V14.01,2013-02-24 16:34:00,
2013-02-24 10:35:00,46.0,32.5,30.10,SE,129,1.0,6.0,59,0.00,,---,0.00,VWS V14.01,2013-02-24 16:35:00,
2013-02-24 10:36:00,46.0,32.5,30.10,ESE,120,1.0,6.0,59,0.00,,---,0.00,VWS V14.01,2013-02-24 16:36:00,
2013-02-24 10:38:00,46.4,32.4,30.10,ENE,69,5.0,6.0,58,0.00,,---,0.00,VWS V14.01,2013-02-24 16:38:00,
2013-02-24 10:39:00,46.6,32.6,30.10,East,97,2.0,6.0,58,0.00,,---,0.00,VWS V14.01,2013-02-24 16:39:00,
2013-02-24 10:40:00,46.7,32.3,30.09,NE,45,2.0,6.0,57,0.00,,---,0.00,VWS V14.01,2013-02-24 16:40:00,
2013-02-24 10:41:00,46.7,32.7,30.09,East,84,7.0,7.0,58,0.00,,---,0.00,VWS V14.01,2013-02-24 16:41:00,
2013-02-24 10:43:00,46.7,31.9,30.10,East,83,3.0,7.0,56,0.00,,---,0.00,VWS V14.01,2013-02-24 16:43:00,
2013-02-24 10:45:00,46.7,31.9,30.10,ESE,115,2.0,7.0,56,0.00,,---,0.00,VWS V14.01,2013-02-24 16:45:00,
2013-02-24 10:46:00,46.7,32.3,30.09,ESE,113,5.0,5.0,57,0.00,,---,0.00,VWS V14.01,2013-02-24 16:46:00,
2013-02-24 10:48:00,46.9,32.5,30.09,ESE,122,0.0,5.0,57,0.00,,---,0.00,VWS V14.01,2013-02-24 16:48:00,
2013-02-24 10:50:00,47.0,33.0,30.09,ESE,122,1.0,5.0,58,0.00,,---,0.00,VWS V14.01,2013-02-24 16:50:00,
2013-02-24 10:51:00,47.2,33.2,30.09,SSE,156,0.0,5.0,58,0.00,,---,0.00,VWS V14.01,2013-02-24 16:51:00,
2013-02-24 10:53:00,47.5,33.0,30.09,ESE,103,2.0,5.0,57,0.00,,---,0.00,VWS V14.01,2013-02-24 16:53:00,
2013-02-24 10:55:00,47.6,32.7,30.09,ENE,76,6.0,7.0,56,0.00,,---,0.00,VWS V14.01,2013-02-24 16:55:00,
2013-02-24 10:56:00,47.6,32.2,30.09,ENE,67,2.0,7.0,55,0.00,,---,0.00,VWS V14.01,2013-02-24 16:56:00,
2013-02-24 10:58:00,47.6,32.7,30.09,SW,230,2.0,7.0,56,0.00,,---,0.00,VWS V14.01,2013-02-24 16:58:00,
2013-02-24 11:00:00,47.8,32.9,30.09,East,93,1.0,7.0,56,0.00,,---,0.00,VWS V14.01,2013-02-24 17:00:00,
2013-02-24 11:01:00,48.0,33.1,30.09,East,80,4.0,4.0,56,0.00,,---,0.00,VWS V14.01,2013-02-24 17:01:00,
2013-02-24 11:04:00,48.0,32.6,30.09,North,10,3.0,5.0,55,0.00,,---,0.00,VWS V14.01,2013-02-24 17:04:00,
2013-02-24 11:05:00,48.1,32.7,30.09,ENE,60,2.0,5.0,55,0.00,,---,0.00,VWS V14.01,2013-02-24 17:05:00,
2013-02-24 11:06:00,48.1,32.3,30.09,ESE,118,1.0,5.0,54,0.00,,---,0.00,VWS V14.01,2013-02-24 17:06:00,
2013-02-24 11:08:00,48.3,32.4,30.09,SW,221,2.0,5.0,54,0.00,,---,0.00,VWS V14.01,2013-02-24 17:08:00,
2013-02-24 11:10:00,48.5,32.2,30.09,South,169,1.0,5.0,53,0.00,,---,0.00,VWS V14.01,2013-02-24 17:10:00,
2013-02-24 11:11:00,48.7,32.8,30.09,ENE,74,5.0,5.0,54,0.00,,---,0.00,VWS V14.01,2013-02-24 17:11:00,
2013-02-24 11:14:00,48.9,32.5,30.09,ENE,72,1.0,5.0,53,0.00,,---,0.00,VWS V14.01,2013-02-24 17:14:00,
2013-02-24 11:15:00,49.0,32.2,30.09,NNE,15,2.0,3.0,52,0.00,,---,0.00,VWS V14.01,2013-02-24 17:15:00,
2013-02-24 11:16:00,49.0,31.7,30.09,NE,39,4.0,5.0,51,0.00,,---,0.00,VWS V14.01,2013-02-24 17:16:00,
2013-02-24 11:19:00,48.9,32.5,30.09,East,94,2.0,5.0,53,0.00,,---,0.00,VWS V14.01,2013-02-24 17:19:00,
2013-02-24 11:21:00,49.0,32.2,30.09,East,87,2.0,7.0,52,0.00,,---,0.00,VWS V14.01,2013-02-24 17:21:00,
2013-02-24 11:24:00,49.0,32.6,30.09,NNW,339,1.0,7.0,53,0.00,,---,0.00,VWS V14.01,2013-02-24 17:24:00,
2013-02-24 11:26:00,49.5,33.6,30.09,SW,217,0.0,7.0,54,0.00,,---,0.00,VWS V14.01,2013-02-24 17:26:00,
2013-02-24 11:29:00,50.0,33.1,30.09,East,82,4.0,7.0,52,0.00,,---,0.00,VWS V14.01,2013-02-24 17:29:00,
2013-02-24 11:31:00,50.2,32.8,30.09,SE,127,1.0,7.0,51,0.00,,---,0.00,VWS V14.01,2013-02-24 17:31:00,
2013-02-24 11:32:00,50.1,32.7,30.09,SE,125,1.0,7.0,51,0.00,,---,0.00,VWS V14.01,2013-02-24 17:32:00,
2013-02-24 11:34:00,50.2,32.8,30.09,West,266,1.0,7.0,51,0.00,,---,0.00,VWS V14.01,2013-02-24 17:34:00,
2013-02-24 11:36:00,50.4,33.5,30.08,WNW,287,1.0,7.0,52,0.00,,---,0.00,VWS V14.01,2013-02-24 17:36:00,
2013-02-24 11:37:00,50.5,33.1,30.08,SE,131,2.0,7.0,51,0.00,,---,0.00,VWS V14.01,2013-02-24 17:37:00,
2013-02-24 11:39:00,50.6,32.7,30.08,North,360,1.0,7.0,50,0.00,,---,0.00,VWS V14.01,2013-02-24 17:39:00,
2013-02-24 11:41:00,50.7,32.8,30.08,ENE,76,4.0,7.0,50,0.00,,---,0.00,VWS V14.01,2013-02-24 17:41:00,
2013-02-24 11:42:00,50.6,31.6,30.08,East,96,1.0,7.0,48,0.00,,---,0.00,VWS V14.01,2013-02-24 17:42:00,
2013-02-24 11:44:00,50.5,32.1,30.08,East,89,1.0,7.0,49,0.00,,---,0.00,VWS V14.01,2013-02-24 17:44:00,
2013-02-24 11:46:00,50.6,32.2,30.08,SW,231,0.0,1.0,49,0.00,,---,0.00,VWS V14.01,2013-02-24 17:46:00,
2013-02-24 11:47:00,50.7,32.8,30.08,SW,231,1.0,1.0,50,0.00,,---,0.00,VWS V14.01,2013-02-24 17:47:00,
2013-02-24 11:49:00,51.0,32.0,30.08,ESE,105,2.0,6.0,48,0.00,,---,0.00,VWS V14.01,2013-02-24 17:49:00,
2013-02-24 11:51:00,50.9,31.4,30.08,ESE,122,2.0,6.0,47,0.00,,---,0.00,VWS V14.01,2013-02-24 17:51:00,
2013-02-24 11:52:00,50.9,31.9,30.08,SE,125,3.0,6.0,48,0.00,,---,0.00,VWS V14.01,2013-02-24 17:52:00,
2013-02-24 11:54:00,51.0,32.0,30.08,ESE,110,1.0,6.0,48,0.00,,---,0.00,VWS V14.01,2013-02-24 17:54:00,
2013-02-24 11:57:00,51.1,32.1,30.08,East,101,4.0,6.0,48,0.00,,---,0.00,VWS V14.01,2013-02-24 17:57:00,
2013-02-24 11:59:00,51.1,31.6,30.07,NE,46,2.0,6.0,47,0.00,,---,0.00,VWS V14.01,2013-02-24 17:59:00,
2013-02-24 12:02:00,51.3,32.3,30.07,ESE,111,1.0,2.0,48,0.00,,---,0.00,VWS V14.01,2013-02-24 18:02:00,
2013-02-24 12:04:00,51.5,33.0,30.07,NE,51,3.0,7.0,49,0.00,,---,0.00,VWS V14.01,2013-02-24 18:04:00,
2013-02-24 12:07:00,51.7,32.1,30.07,East,84,6.0,7.0,47,0.00,,---,0.00,VWS V14.01,2013-02-24 18:07:00,
2013-02-24 12:09:00,51.8,32.2,30.06,NNW,340,2.0,7.0,47,0.00,,---,0.00,VWS V14.01,2013-02-24 18:09:00,
2013-02-24 12:12:00,52.0,33.5,30.06,ENE,60,2.0,7.0,49,0.00,,---,0.00,VWS V14.01,2013-02-24 18:12:00,
2013-02-24 12:15:00,52.3,33.2,30.06,NNE,21,1.0,7.0,48,0.00,,---,0.00,VWS V14.01,2013-02-24 18:15:00,
2013-02-24 12:17:00,52.2,33.1,30.06,ENE,77,6.0,7.0,48,0.00,,---,0.00,VWS V14.01,2013-02-24 18:17:00,
2013-02-24 12:20:00,51.9,32.8,30.06,SE,141,2.0,7.0,48,0.00,,---,0.00,VWS V14.01,2013-02-24 18:20:00,
2013-02-24 12:22:00,52.1,32.5,30.06,SE,127,1.0,7.0,47,0.00,,---,0.00,VWS V14.01,2013-02-24 18:22:00,
2013-02-24 12:23:00,52.1,32.0,30.06,SE,129,0.0,7.0,46,0.00,,---,0.00,VWS V14.01,2013-02-24 18:23:00,
2013-02-24 12:25:00,52.5,32.9,30.06,SE,146,0.0,7.0,47,0.00,,---,0.00,VWS V14.01,2013-02-24 18:25:00,
2013-02-24 12:27:00,53.1,32.9,30.06,ESE,119,3.0,7.0,46,0.00,,---,0.00,VWS V14.01,2013-02-24 18:27:00,
2013-02-24 12:28:00,53.2,33.0,30.06,SE,135,2.0,7.0,46,0.00,,---,0.00,VWS V14.01,2013-02-24 18:28:00,
2013-02-24 12:30:00,53.5,32.7,30.06,SW,226,2.0,7.0,45,0.00,,---,0.00,VWS V14.01,2013-02-24 18:30:00,
2013-02-24 12:33:00,53.8,32.4,30.05,SSE,167,0.0,4.0,44,0.00,,---,0.00,VWS V14.01,2013-02-24 18:33:00,
2013-02-24 12:35:00,54.0,33.2,30.05,NW,304,0.0,4.0,45,0.00,,---,0.00,VWS V14.01,2013-02-24 18:35:00,
2013-02-24 12:38:00,54.2,32.8,30.05,NE,56,3.0,6.0,44,0.00,,---,0.00,VWS V14.01,2013-02-24 18:38:00,
2013-02-24 12:40:00,54.1,32.7,30.05,ENE,62,1.0,6.0,44,0.00,,---,0.00,VWS V14.01,2013-02-24 18:40:00,
2013-02-24 12:43:00,54.1,32.7,30.05,SE,132,1.0,6.0,44,0.00,,---,0.00,VWS V14.01,2013-02-24 18:43:00,
2013-02-24 12:45:00,54.2,32.8,30.04,SE,131,2.0,6.0,44,0.00,,---,0.00,VWS V14.01,2013-02-24 18:45:00,
2013-02-24 12:48:00,54.5,33.6,30.04,SE,126,1.0,3.0,45,0.00,,---,0.00,VWS V14.01,2013-02-24 18:48:00,
2013-02-24 12:50:00,54.7,32.7,30.04,East,83,1.0,3.0,43,0.00,,---,0.00,VWS V14.01,2013-02-24 18:50:00,
2013-02-24 12:53:00,54.9,33.4,30.04,WSW,254,2.0,4.0,44,0.00,,---,0.00,VWS V14.01,2013-02-24 18:53:00,
2013-02-24 12:55:00,55.2,33.1,30.04,SSE,150,2.0,4.0,43,0.00,,---,0.00,VWS V14.01,2013-02-24 18:55:00,
2013-02-24 12:58:00,55.6,34.0,30.04,East,84,3.0,5.0,44,0.00,,---,0.00,VWS V14.01,2013-02-24 18:58:00,
2013-02-24 13:00:00,55.3,32.0,30.04,East,90,1.0,1.0,41,0.00,,---,0.00,VWS V14.01,2013-02-24 19:00:00,
2013-02-24 13:03:00,54.7,32.7,30.04,ENE,65,1.0,6.0,43,0.00,,---,0.00,VWS V14.01,2013-02-24 19:03:00,
2013-02-24 13:05:00,54.6,32.6,30.03,ESE,121,2.0,6.0,43,0.00,,---,0.00,VWS V14.01,2013-02-24 19:05:00,
2013-02-24 13:08:00,54.5,31.9,30.03,ESE,122,3.0,6.0,42,0.00,,---,0.00,VWS V14.01,2013-02-24 19:08:00,
2013-02-24 13:09:00,54.5,31.9,30.03,South,187,1.0,6.0,42,0.00,,---,0.00,VWS V14.01,2013-02-24 19:09:00,
2013-02-24 13:10:00,54.6,32.0,30.03,SSE,164,1.0,6.0,42,0.00,,---,0.00,VWS V14.01,2013-02-24 19:10:00,
2013-02-24 13:13:00,54.7,32.1,30.03,SE,135,2.0,6.0,42,0.00,,---,0.00,VWS V14.01,2013-02-24 19:13:00,
2013-02-24 13:14:00,54.8,32.8,30.03,East,81,6.0,6.0,43,0.00,,---,0.00,VWS V14.01,2013-02-24 19:14:00,
2013-02-24 13:16:00,54.8,32.8,30.03,NE,46,2.0,3.0,43,0.00,,---,0.00,VWS V14.01,2013-02-24 19:16:00,
2013-02-24 13:18:00,55.0,32.9,30.03,ENE,76,5.0,5.0,43,0.00,,---,0.00,VWS V14.01,2013-02-24 19:18:00,
2013-02-24 13:19:00,55.0,32.9,30.03,NE,46,4.0,5.0,43,0.00,,---,0.00,VWS V14.01,2013-02-24 19:19:00,
2013-02-24 13:21:00,55.0,32.9,30.03,ESE,115,3.0,7.0,43,0.00,,---,0.00,VWS V14.01,2013-02-24 19:21:00,
2013-02-24 13:23:00,55.1,33.0,30.02,East,83,4.0,8.0,43,0.00,,---,0.00,VWS V14.01,2013-02-24 19:23:00,
2013-02-24 13:24:00,55.1,33.0,30.02,ENE,65,2.0,8.0,43,0.00,,---,0.00,VWS V14.01,2013-02-24 19:24:00,
2013-02-24 13:26:00,55.1,33.0,30.02,North,355,1.0,8.0,43,0.00,,---,0.00,VWS V14.01,2013-02-24 19:26:00,
2013-02-24 13:28:00,55.2,33.7,30.03,North,352,1.0,8.0,44,0.00,,---,0.00,VWS V14.01,2013-02-24 19:28:00,
2013-02-24 13:29:00,55.3,33.8,30.03,East,87,2.0,8.0,44,0.00,,---,0.00,VWS V14.01,2013-02-24 19:29:00,
2013-02-24 13:31:00,55.7,33.6,30.02,ESE,115,2.0,3.0,43,0.00,,---,0.00,VWS V14.01,2013-02-24 19:31:00,
2013-02-24 13:33:00,56.0,33.2,30.02,SE,128,1.0,5.0,42,0.00,,---,0.00,VWS V14.01,2013-02-24 19:33:00,
2013-02-24 13:34:00,56.1,33.3,30.02,South,177,1.0,5.0,42,0.00,,---,0.00,VWS V14.01,2013-02-24 19:34:00,
2013-02-24 13:36:00,56.3,32.9,30.02,South,172,1.0,5.0,41,0.00,,---,0.00,VWS V14.01,2013-02-24 19:36:00,
2013-02-24 13:39:00,56.3,32.9,30.02,ENE,63,2.0,8.0,41,0.00,,---,0.00,VWS V14.01,2013-02-24 19:39:00,
2013-02-24 13:41:00,56.1,32.7,30.02,North,349,1.0,8.0,41,0.00,,---,0.00,VWS V14.01,2013-02-24 19:41:00,
2013-02-24 13:44:00,56.1,32.7,30.02,SE,134,2.0,8.0,41,0.00,,---,0.00,VWS V14.01,2013-02-24 19:44:00,
2013-02-24 13:46:00,56.1,33.3,30.02,ESE,120,4.0,11.0,42,0.00,,---,0.00,VWS V14.01,2013-02-24 19:46:00,
2013-02-24 13:49:00,55.9,33.2,30.01,ENE,73,8.0,11.0,42,0.00,,---,0.00,VWS V14.01,2013-02-24 19:49:00,
2013-02-24 13:51:00,55.7,33.0,30.01,East,83,1.0,11.0,42,0.00,,---,0.00,VWS V14.01,2013-02-24 19:51:00,
2013-02-24 13:54:00,56.1,33.3,30.02,ENE,60,3.0,11.0,42,0.00,,---,0.00,VWS V14.01,2013-02-24 19:54:00,
2013-02-24 13:56:00,56.2,33.4,30.01,East,79,1.0,11.0,42,0.00,,---,0.00,VWS V14.01,2013-02-24 19:56:00,
2013-02-24 13:59:00,56.4,33.6,30.01,ENE,58,4.0,11.0,42,0.00,,---,0.00,VWS V14.01,2013-02-24 19:59:00,
2013-02-24 14:01:00,56.5,33.7,30.01,NNE,24,1.0,4.0,42,0.00,,---,0.00,VWS V14.01,2013-02-24 20:01:00,
2013-02-24 14:04:00,56.6,33.2,30.01,North,350,3.0,6.0,41,0.00,,---,0.00,VWS V14.01,2013-02-24 20:04:00,
2013-02-24 14:06:00,56.6,33.2,30.01,ESE,120,1.0,6.0,41,0.00,,---,0.00,VWS V14.01,2013-02-24 20:06:00,
2013-02-24 14:09:00,56.8,34.0,30.01,WNW,302,1.0,6.0,42,0.00,,---,0.00,VWS V14.01,2013-02-24 20:09:00,
2013-02-24 14:11:00,57.1,34.2,30.01,ENE,73,4.0,6.0,42,0.00,,---,0.00,VWS V14.01,2013-02-24 20:11:00,
2013-02-24 14:14:00,57.2,33.7,30.01,North,354,1.0,6.0,41,0.00,,---,0.00,VWS V14.01,2013-02-24 20:14:00,
2013-02-24 14:15:00,57.3,33.8,30.01,NE,37,3.0,6.0,41,0.00,,---,0.00,VWS V14.01,2013-02-24 20:15:00,
2013-02-24 14:16:00,57.3,33.2,30.01,East,80,5.0,5.0,40,0.00,,---,0.00,VWS V14.01,2013-02-24 20:16:00,
2013-02-24 14:19:00,57.2,33.1,30.00,North,7,2.0,6.0,40,0.00,,---,0.00,VWS V14.01,2013-02-24 20:19:00,
2013-02-24 14:20:00,57.2,33.1,30.00,ENE,62,3.0,6.0,40,0.00,,---,0.00,VWS V14.01,2013-02-24 20:20:00,
2013-02-24 14:21:00,57.2,33.7,30.00,East,94,1.0,6.0,41,0.00,,---,0.00,VWS V14.01,2013-02-24 20:21:00,
2013-02-24 14:24:00,57.4,33.3,30.00,NE,44,1.0,6.0,40,0.00,,---,0.00,VWS V14.01,2013-02-24 20:24:00,
2013-02-24 14:25:00,57.4,33.3,30.00,NE,35,0.0,6.0,40,0.00,,---,0.00,VWS V14.01,2013-02-24 20:25:00,
2013-02-24 14:26:00,57.4,33.3,30.00,NNE,17,0.0,6.0,40,0.00,,---,0.00,VWS V14.01,2013-02-24 20:26:00,
2013-02-24 14:30:00,57.8,33.7,30.00,North,359,2.0,6.0,40,0.00,,---,0.00,VWS V14.01,2013-02-24 20:30:00,
2013-02-24 14:32:00,57.9,34.4,30.00,East,84,2.0,3.0,41,0.00,,---,0.00,VWS V14.01,2013-02-24 20:32:00,
2013-02-24 14:35:00,57.8,32.4,30.00,NNE,26,1.0,8.0,38,0.00,,---,0.00,VWS V14.01,2013-02-24 20:35:00,
2013-02-24 14:37:00,57.6,32.8,30.00,East,86,1.0,8.0,39,0.00,,---,0.00,VWS V14.01,2013-02-24 20:37:00,
2013-02-24 14:40:00,57.4,32.7,30.00,East,83,4.0,8.0,39,0.00,,---,0.00,VWS V14.01,2013-02-24 20:40:00,
2013-02-24 14:42:00,57.4,33.3,30.00,NNE,19,2.0,8.0,40,0.00,,---,0.00,VWS V14.01,2013-02-24 20:42:00,
2013-02-24 14:45:00,57.6,33.5,30.00,ESE,122,0.0,8.0,40,0.00,,---,0.00,VWS V14.01,2013-02-24 20:45:00,
2013-02-24 14:47:00,57.8,33.7,29.99,ESE,104,0.0,2.0,40,0.00,,---,0.00,VWS V14.01,2013-02-24 20:47:00,
2013-02-24 14:50:00,58.3,33.5,29.99,ESE,116,3.0,5.0,39,0.00,,---,0.00,VWS V14.01,2013-02-24 20:50:00,
2013-02-24 14:52:00,58.4,33.6,29.99,SE,129,0.0,5.0,39,0.00,,---,0.00,VWS V14.01,2013-02-24 20:52:00,
2013-02-24 14:55:00,58.5,33.0,29.99,East,94,3.0,6.0,38,0.00,,---,0.00,VWS V14.01,2013-02-24 20:55:00,
2013-02-24 14:57:00,58.6,33.7,29.99,NE,41,3.0,6.0,39,0.00,,---,0.00,VWS V14.01,2013-02-24 20:57:00,
2013-02-24 15:00:00,58.7,33.2,29.99,ENE,59,3.0,7.0,38,0.00,,---,0.00,VWS V14.01,2013-02-24 21:00:00,
2013-02-24 15:02:00,58.6,33.1,29.99,ENE,76,4.0,4.0,38,0.00,,---,0.00,VWS V14.01,2013-02-24 21:02:00,
2013-02-24 15:05:00,58.6,33.7,29.99,ESE,108,2.0,6.0,39,0.00,,---,0.00,VWS V14.01,2013-02-24 21:05:00,
2013-02-24 15:06:00,58.7,33.8,29.99,SE,127,1.0,6.0,39,0.00,,---,0.00,VWS V14.01,2013-02-24 21:06:00,
2013-02-24 15:07:00,58.7,33.2,29.99,SE,126,2.0,6.0,38,0.00,,---,0.00,VWS V14.01,2013-02-24 21:07:00,
2013-02-24 15:10:00,58.7,33.2,29.99,SE,136,2.0,6.0,38,0.00,,---,0.00,VWS V14.01,2013-02-24 21:10:00,
2013-02-24 15:11:00,58.7,33.2,29.99,SE,134,1.0,6.0,38,0.00,,---,0.00,VWS V14.01,2013-02-24 21:11:00,
2013-02-24 15:13:00,58.6,33.1,29.99,ENE,73,6.0,6.0,38,0.00,,---,0.00,VWS V14.01,2013-02-24 21:13:00,
2013-02-24 15:15:00,58.5,33.0,29.99,ESE,113,4.0,4.0,38,0.00,,---,0.00,VWS V14.01,2013-02-24 21:15:00,
2013-02-24 15:16:00,58.6,33.1,29.99,SE,131,5.0,5.0,38,0.00,,---,0.00,VWS V14.01,2013-02-24 21:16:00,
2013-02-24 15:18:00,58.5,33.0,29.99,SE,128,4.0,5.0,38,0.00,,---,0.00,VWS V14.01,2013-02-24 21:18:00,
2013-02-24 15:20:00,58.5,33.7,29.99,NE,42,1.0,5.0,39,0.00,,---,0.00,VWS V14.01,2013-02-24 21:20:00,
2013-02-24 15:21:00,58.6,33.7,29.99,NE,42,1.0,5.0,39,0.00,,---,0.00,VWS V14.01,2013-02-24 21:21:00,
2013-02-24 15:23:00,58.7,33.8,29.99,East,98,2.0,5.0,39,0.00,,---,0.00,VWS V14.01,2013-02-24 21:23:00,
2013-02-24 15:26:00,58.9,33.4,29.99,SE,135,1.0,5.0,38,0.00,,---,0.00,VWS V14.01,2013-02-24 21:26:00,
2013-02-24 15:28:00,58.9,33.4,29.98,East,98,4.0,5.0,38,0.00,,---,0.00,VWS V14.01,2013-02-24 21:28:00,
2013-02-24 15:31:00,58.8,33.9,29.98,ENE,77,4.0,4.0,39,0.00,,---,0.00,VWS V14.01,2013-02-24 21:31:00,
2013-02-24 15:32:00,58.8,32.6,29.98,ENE,67,3.0,9.0,37,0.00,,---,0.00,VWS V14.01,2013-02-24 21:32:00,
2013-02-24 15:33:00,58.7,32.5,29.98,East,86,6.0,9.0,37,0.00,,---,0.00,VWS V14.01,2013-02-24 21:33:00,
2013-02-24 15:36:00,58.6,33.1,29.98,ENE,73,4.0,9.0,38,0.00,,---,0.00,VWS V14.01,2013-02-24 21:36:00,
2013-02-24 15:37:00,58.5,32.3,29.98,ENE,69,4.0,9.0,37,0.00,,---,0.00,VWS V14.01,2013-02-24 21:37:00,
2013-02-24 15:38:00,58.5,33.0,29.98,ENE,69,2.0,9.0,38,0.00,,---,0.00,VWS V14.01,2013-02-24 21:38:00,
2013-02-24 15:41:00,58.7,33.2,29.98,ENE,77,3.0,9.0,38,0.00,,---,0.00,VWS V14.01,2013-02-24 21:41:00,
2013-02-24 15:42:00,58.8,33.3,29.98,SE,127,1.0,9.0,38,0.00,,---,0.00,VWS V14.01,2013-02-24 21:42:00,
2013-02-24 15:43:00,58.8,33.3,29.98,East,82,3.0,9.0,38,0.00,,---,0.00,VWS V14.01,2013-02-24 21:43:00,
2013-02-24 15:46:00,58.9,32.7,29.98,East,100,1.0,6.0,37,0.00,,---,0.00,VWS V14.01,2013-02-24 21:46:00,
2013-02-24 15:47:00,59.0,34.1,29.98,East,98,2.0,6.0,39,0.00,,---,0.00,VWS V14.01,2013-02-24 21:47:00,
2013-02-24 15:48:00,59.0,33.5,29.98,ESE,106,2.0,6.0,38,0.00,,---,0.00,VWS V14.01,2013-02-24 21:48:00,
2013-02-24 15:51:00,59.1,33.5,29.98,SE,127,1.0,6.0,38,0.00,,---,0.00,VWS V14.01,2013-02-24 21:51:00,
2013-02-24 15:52:00,59.1,33.5,29.98,NE,51,4.0,6.0,38,0.00,,---,0.00,VWS V14.01,2013-02-24 21:52:00,
2013-02-24 15:53:00,59.1,33.5,29.98,ESE,105,1.0,6.0,38,0.00,,---,0.00,VWS V14.01,2013-02-24 21:53:00,
2013-02-24 15:56:00,59.1,32.9,29.98,ESE,117,2.0,6.0,37,0.00,,---,0.00,VWS V14.01,2013-02-24 21:56:00,
2013-02-24 15:57:00,59.1,32.9,29.98,East,100,1.0,6.0,37,0.00,,---,0.00,VWS V14.01,2013-02-24 21:57:00,
2013-02-24 15:58:00,59.1,32.9,29.98,East,90,1.0,6.0,37,0.00,,---,0.00,VWS V14.01,2013-02-24 21:58:00,
2013-02-24 16:01:00,59.1,32.9,29.98,ESE,119,3.0,3.0,37,0.00,,---,0.00,VWS V14.01,2013-02-24 22:01:00,
2013-02-24 16:02:00,59.1,33.5,29.98,East,80,5.0,5.0,38,0.00,,---,0.00,VWS V14.01,2013-02-24 22:02:00,
2013-02-24 16:03:00,59.0,32.8,29.98,ENE,63,2.0,7.0,37,0.00,,---,0.00,VWS V14.01,2013-02-24 22:03:00,
2013-02-24 16:06:00,59.0,33.5,29.97,ESE,112,2.0,7.0,38,0.00,,---,0.00,VWS V14.01,2013-02-24 22:06:00,
2013-02-24 16:07:00,59.1,33.5,29.98,SE,133,2.0,7.0,38,0.00,,---,0.00,VWS V14.01,2013-02-24 22:07:00,
2013-02-24 16:08:00,59.1,32.9,29.97,East,82,3.0,7.0,37,0.00,,---,0.00,VWS V14.01,2013-02-24 22:08:00,
2013-02-24 16:11:00,59.0,33.5,29.97,East,90,2.0,7.0,38,0.00,,---,0.00,VWS V14.01,2013-02-24 22:11:00,
2013-02-24 16:12:00,59.0,33.5,29.97,East,90,2.0,7.0,38,0.00,,---,0.00,VWS V14.01,2013-02-24 22:12:00,
2013-02-24 16:13:00,59.1,32.9,29.97,ENE,76,4.0,7.0,37,0.00,,---,0.00,VWS V14.01,2013-02-24 22:13:00,
2013-02-24 16:17:00,59.1,32.9,29.97,SE,146,2.0,5.0,37,0.00,,---,0.00,VWS V14.01,2013-02-24 22:17:00,
2013-02-24 16:18:00,59.1,33.5,29.97,ENE,72,1.0,5.0,38,0.00,,---,0.00,VWS V14.01,2013-02-24 22:18:00,
2013-02-24 16:22:00,59.3,33.0,29.97,East,94,4.0,6.0,37,0.00,,---,0.00,VWS V14.01,2013-02-24 22:22:00,
2013-02-24 16:23:00,59.3,33.0,29.97,East,87,3.0,6.0,37,0.00,,---,0.00,VWS V14.01,2013-02-24 22:23:00,
2013-02-24 16:27:00,59.1,33.5,29.97,East,96,2.0,7.0,38,0.00,,---,0.00,VWS V14.01,2013-02-24 22:27:00,
2013-02-24 16:28:00,59.1,32.9,29.97,SE,141,3.0,7.0,37,0.00,,---,0.00,VWS V14.01,2013-02-24 22:28:00,
2013-02-24 16:32:00,59.2,33.6,29.96,ENE,58,3.0,3.0,38,0.00,,---,0.00,VWS V14.01,2013-02-24 22:32:00,
2013-02-24 16:33:00,59.2,33.0,29.96,ENE,63,1.0,3.0,37,0.00,,---,0.00,VWS V14.01,2013-02-24 22:33:00,
2013-02-24 16:37:00,59.3,33.7,29.96,ESE,111,1.0,3.0,38,0.00,,---,0.00,VWS V14.01,2013-02-24 22:37:00,
2013-02-24 16:38:00,59.3,33.7,29.96,ENE,65,3.0,4.0,38,0.00,,---,0.00,VWS V14.01,2013-02-24 22:38:00,
2013-02-24 16:39:00,59.3,33.7,29.96,East,82,6.0,6.0,38,0.00,,---,0.00,VWS V14.01,2013-02-24 22:39:00,
2013-02-24 16:42:00,59.2,33.0,29.96,ENE,70,1.0,6.0,37,0.00,,---,0.00,VWS V14.01,2013-02-24 22:42:00,
2013-02-24 16:44:00,59.1,32.9,29.96,ESE,117,1.0,6.0,37,0.00,,---,0.00,VWS V14.01,2013-02-24 22:44:00,
2013-02-24 16:47:00,59.1,33.5,29.96,NE,51,3.0,3.0,38,0.00,,---,0.00,VWS V14.01,2013-02-24 22:47:00,
2013-02-24 16:49:00,59.1,33.5,29.96,East,98,0.0,6.0,38,0.00,,---,0.00,VWS V14.01,2013-02-24 22:49:00,
2013-02-24 16:52:00,59.0,32.8,29.96,SE,127,1.0,6.0,37,0.00,,---,0.00,VWS V14.01,2013-02-24 22:52:00,
2013-02-24 16:54:00,58.9,33.4,29.96,ESE,116,2.0,6.0,38,0.00,,---,0.00,VWS V14.01,2013-02-24 22:54:00,
2013-02-24 16:57:00,58.9,33.4,29.96,East,84,1.0,6.0,38,0.00,,---,0.00,VWS V14.01,2013-02-24 22:57:00,
2013-02-24 16:58:00,58.9,33.4,29.96,ENE,69,5.0,6.0,38,0.00,,---,0.00,VWS V14.01,2013-02-24 22:58:00,
2013-02-24 16:59:00,58.8,33.3,29.96,NE,45,2.0,7.0,38,0.00,,---,0.00,VWS V14.01,2013-02-24 22:59:00,
2013-02-24 17:02:00,58.7,33.2,29.96,SSE,160,2.0,4.0,38,0.00,,---,0.00,VWS V14.01,2013-02-24 23:02:00,
2013-02-24 17:03:00,58.7,33.2,29.96,SSE,160,2.0,4.0,38,0.00,,---,0.00,VWS V14.01,2013-02-24 23:03:00,
2013-02-24 17:04:00,58.7,33.8,29.96,ESE,123,1.0,4.0,39,0.00,,---,0.00,VWS V14.01,2013-02-24 23:04:00,
2013-02-24 17:08:00,58.8,33.9,29.96,East,81,5.0,5.0,39,0.00,,---,0.00,VWS V14.01,2013-02-24 23:08:00,
2013-02-24 17:09:00,58.7,33.2,29.96,East,83,1.0,6.0,38,0.00,,---,0.00,VWS V14.01,2013-02-24 23:09:00,
2013-02-24 17:13:00,58.7,33.2,29.96,ENE,77,5.0,9.0,38,0.00,,---,0.00,VWS V14.01,2013-02-24 23:13:00,
2013-02-24 17:14:00,58.7,33.2,29.96,East,83,4.0,9.0,38,0.00,,---,0.00,VWS V14.01,2013-02-24 23:14:00,
2013-02-24 17:18:00,58.6,33.7,29.96,East,79,1.0,4.0,39,0.00,,---,0.00,VWS V14.01,2013-02-24 23:18:00,
2013-02-24 17:19:00,58.6,33.7,29.96,East,79,1.0,4.0,39,0.00,,---,0.00,VWS V14.01,2013-02-24 23:19:00,
2013-02-24 17:23:00,58.5,33.7,29.96,East,82,2.0,5.0,39,0.00,,---,0.00,VWS V14.01,2013-02-24 23:23:00,
2013-02-24 17:24:00,58.4,33.6,29.96,East,80,1.0,5.0,39,0.00,,---,0.00,VWS V14.01,2013-02-24 23:24:00,
2013-02-24 17:28:00,58.4,34.2,29.96,East,80,0.0,5.0,40,0.00,,---,0.00,VWS V14.01,2013-02-24 23:28:00,
2013-02-24 17:29:00,58.4,34.2,29.96,East,87,2.0,5.0,40,0.00,,---,0.00,VWS V14.01,2013-02-24 23:29:00,
2013-02-24 17:30:00,58.3,33.5,29.96,East,80,1.0,5.0,39,0.00,,---,0.00,VWS V14.01,2013-02-24 23:30:00,
2013-02-24 17:33:00,58.1,33.9,29.96,East,89,1.0,2.0,40,0.00,,---,0.00,VWS V14.01,2013-02-24 23:33:00,
2013-02-24 17:34:00,58.0,33.8,29.96,East,100,1.0,2.0,40,0.00,,---,0.00,VWS V14.01,2013-02-24 23:34:00,
2013-02-24 17:35:00,58.0,33.8,29.96,East,82,0.0,2.0,40,0.00,,---,0.00,VWS V14.01,2013-02-24 23:35:00,
2013-02-24 17:38:00,57.6,33.5,29.96,East,80,0.0,2.0,40,0.00,,---,0.00,VWS V14.01,2013-02-24 23:38:00,
2013-02-24 17:39:00,57.6,34.1,29.96,East,80,0.0,2.0,41,0.00,,---,0.00,VWS V14.01,2013-02-24 23:39:00,
2013-02-24 17:40:00,57.5,34.0,29.96,East,80,1.0,2.0,41,0.00,,---,0.00,VWS V14.01,2013-02-24 23:40:00,
2013-02-24 17:43:00,57.1,33.6,29.96,ENE,77,0.0,2.0,41,0.00,,---,0.00,VWS V14.01,2013-02-24 23:43:00,
2013-02-24 17:44:00,56.9,33.5,29.96,ENE,73,1.0,2.0,41,0.00,,---,0.00,VWS V14.01,2013-02-24 23:44:00,
2013-02-24 17:45:00,56.9,33.5,29.96,ENE,73,0.0,2.0,41,0.00,,---,0.00,VWS V14.01,2013-02-24 23:45:00,
2013-02-24 17:48:00,56.4,33.6,29.96,ENE,73,2.0,2.0,42,0.00,,---,0.00,VWS V14.01,2013-02-24 23:48:00,
2013-02-24 17:49:00,56.3,33.5,29.96,ENE,77,0.0,2.0,42,0.00,,---,0.00,VWS V14.01,2013-02-24 23:49:00,
2013-02-24 17:50:00,56.2,33.4,29.96,ENE,77,1.0,2.0,42,0.00,,---,0.00,VWS V14.01,2013-02-24 23:50:00,
2013-02-24 17:53:00,55.8,33.7,29.97,ENE,78,2.0,2.0,43,0.00,,---,0.00,VWS V14.01,2013-02-24 23:53:00,
2013-02-24 17:54:00,55.7,33.6,29.96,East,79,0.0,2.0,43,0.00,,---,0.00,VWS V14.01,2013-02-24 23:54:00,
2013-02-24 17:55:00,55.7,33.6,29.96,East,79,0.0,2.0,43,0.00,,---,0.00,VWS V14.01,2013-02-24 23:55:00,
2013-02-24 17:58:00,55.3,33.8,29.97,East,79,0.0,2.0,44,0.00,,---,0.00,VWS V14.01,2013-02-24 23:58:00,
2013-02-24 18:00:00,55.1,34.2,29.97,East,79,0.0,2.0,45,0.00,,---,0.00,VWS V14.01,2013-02-25 00:00:00,
2013-02-24 18:04:00,54.6,33.7,29.97,East,82,0.0,1.0,45,0.00,,---,0.00,VWS V14.01,2013-02-25 00:04:00,
2013-02-24 18:05:00,54.5,33.6,29.97,East,82,0.0,1.0,45,0.00,,---,0.00,VWS V14.01,2013-02-25 00:05:00,
2013-02-24 18:09:00,54.1,33.2,29.97,East,98,0.0,2.0,45,0.00,,---,0.00,VWS V14.01,2013-02-25 00:09:00,
2013-02-24 18:10:00,54.1,33.8,29.97,East,98,0.0,2.0,46,0.00,,---,0.00,VWS V14.01,2013-02-25 00:10:00,
2013-02-24 18:11:00,54.1,33.8,29.97,East,98,0.0,2.0,46,0.00,,---,0.00,VWS V14.01,2013-02-25 00:11:00,
2013-02-24 18:14:00,53.8,33.5,29.97,East,90,0.0,2.0,46,0.00,,---,0.00,VWS V14.01,2013-02-25 00:14:00,
2013-02-24 18:15:00,53.8,33.5,29.97,East,90,0.0,0.0,46,0.00,,---,0.00,VWS V14.01,2013-02-25 00:15:00,
2013-02-24 18:16:00,53.8,33.5,29.97,East,90,1.0,1.0,46,0.00,,---,0.00,VWS V14.01,2013-02-25 00:16:00,
2013-02-24 18:19:00,53.6,33.3,29.97,ENE,77,1.0,2.0,46,0.00,,---,0.00,VWS V14.01,2013-02-25 00:19:00,
2013-02-24 18:20:00,53.6,33.3,29.97,East,91,0.0,2.0,46,0.00,,---,0.00,VWS V14.01,2013-02-25 00:20:00,
2013-02-24 18:21:00,53.6,33.3,29.97,East,91,0.0,2.0,46,0.00,,---,0.00,VWS V14.01,2013-02-25 00:21:00,
2013-02-24 18:25:00,53.4,33.7,29.97,East,91,1.0,2.0,47,0.00,,---,0.00,VWS V14.01,2013-02-25 00:25:00,
2013-02-24 18:26:00,53.3,33.6,29.97,East,93,1.0,2.0,47,0.00,,---,0.00,VWS V14.01,2013-02-25 00:26:00,
2013-02-24 18:30:00,53.0,33.3,29.97,East,91,1.0,1.0,47,0.00,,---,0.00,VWS V14.01,2013-02-25 00:30:00,
2013-02-24 18:31:00,53.0,33.3,29.97,East,91,1.0,2.0,47,0.00,,---,0.00,VWS V14.01,2013-02-25 00:31:00,
2013-02-24 18:35:00,52.9,33.2,29.97,ESE,104,1.0,4.0,47,0.00,,---,0.00,VWS V14.01,2013-02-25 00:35:00,
2013-02-24 18:36:00,52.9,33.2,29.97,East,93,1.0,4.0,47,0.00,,---,0.00,VWS V14.01,2013-02-25 00:36:00,
2013-02-24 18:40:00,52.9,33.2,29.97,East,82,3.0,5.0,47,0.00,,---,0.00,VWS V14.01,2013-02-25 00:40:00,
2013-02-24 18:41:00,52.9,33.2,29.97,East,97,3.0,5.0,47,0.00,,---,0.00,VWS V14.01,2013-02-25 00:41:00,
2013-02-24 18:45:00,52.8,33.2,29.97,East,90,2.0,2.0,47,0.00,,---,0.00,VWS V14.01,2013-02-25 00:45:00,
2013-02-24 18:46:00,52.8,33.2,29.97,East,93,1.0,2.0,47,0.00,,---,0.00,VWS V14.01,2013-02-25 00:46:00,
2013-02-24 18:51:00,52.7,33.0,29.96,East,91,1.0,4.0,47,0.00,,---,0.00,VWS V14.01,2013-02-25 00:51:00,
2013-02-24 18:56:00,52.6,33.0,29.96,East,92,3.0,4.0,47,0.00,,---,0.00,VWS V14.01,2013-02-25 00:56:00,
2013-02-24 18:57:00,52.6,33.0,29.96,East,90,1.0,4.0,47,0.00,,---,0.00,VWS V14.01,2013-02-25 00:57:00,
2013-02-24 19:01:00,52.4,32.8,29.97,East,89,1.0,2.0,47,0.00,,---,0.00,VWS V14.01,2013-02-25 01:01:00,
2013-02-24 19:02:00,52.4,33.3,29.97,East,86,1.0,2.0,48,0.00,,---,0.00,VWS V14.01,2013-02-25 01:02:00,
2013-02-24 19:06:00,52.3,33.2,29.96,East,97,3.0,4.0,48,0.00,,---,0.00,VWS V14.01,2013-02-25 01:06:00,
2013-02-24 19:07:00,52.2,33.1,29.96,East,93,1.0,4.0,48,0.00,,---,0.00,VWS V14.01,2013-02-25 01:07:00,
2013-02-24 19:11:00,52.2,33.1,29.96,East,94,1.0,5.0,48,0.00,,---,0.00,VWS V14.01,2013-02-25 01:11:00,
2013-02-24 19:12:00,52.1,33.0,29.97,East,87,1.0,5.0,48,0.00,,---,0.00,VWS V14.01,2013-02-25 01:12:00,
2013-02-24 19:16:00,51.9,32.8,29.97,East,100,1.0,2.0,48,0.00,,---,0.00,VWS V14.01,2013-02-25 01:16:00,
2013-02-24 19:17:00,51.8,32.8,29.97,East,100,1.0,2.0,48,0.00,,---,0.00,VWS V14.01,2013-02-25 01:17:00,
2013-02-24 19:21:00,51.6,33.1,29.97,East,96,0.0,3.0,49,0.00,,---,0.00,VWS V14.01,2013-02-25 01:21:00,
2013-02-24 19:22:00,51.6,33.1,29.97,East,96,0.0,3.0,49,0.00,,---,0.00,VWS V14.01,2013-02-25 01:22:00,
2013-02-24 19:26:00,51.4,32.9,29.96,East,99,0.0,3.0,49,0.00,,---,0.00,VWS V14.01,2013-02-25 01:26:00,
2013-02-24 19:27:00,51.3,32.8,29.96,East,100,0.0,3.0,49,0.00,,---,0.00,VWS V14.01,2013-02-25 01:27:00,
2013-02-24 19:31:00,51.0,32.5,29.96,ESE,115,0.0,2.0,49,0.00,,---,0.00,VWS V14.01,2013-02-25 01:31:00,
2013-02-24 19:32:00,51.0,33.0,29.96,ESE,115,1.0,2.0,50,0.00,,---,0.00,VWS V14.01,2013-02-25 01:32:00,
2013-02-24 19:36:00,50.8,32.8,29.96,East,94,1.0,3.0,50,0.00,,---,0.00,VWS V14.01,2013-02-25 01:36:00,
2013-02-24 19:37:00,50.7,32.8,29.96,East,94,0.0,3.0,50,0.00,,---,0.00,VWS V14.01,2013-02-25 01:37:00,
2013-02-24 19:41:00,50.3,32.9,29.96,East,93,0.0,3.0,51,0.00,,---,0.00,VWS V14.01,2013-02-25 01:41:00,
2013-02-24 19:42:00,50.3,32.9,29.96,East,93,0.0,3.0,51,0.00,,---,0.00,VWS V14.01,2013-02-25 01:42:00,
2013-02-24 19:46:00,49.7,32.8,29.96,East,94,0.0,0.0,52,0.00,,---,0.00,VWS V14.01,2013-02-25 01:46:00,
2013-02-24 19:47:00,49.7,32.8,29.96,East,94,0.0,0.0,52,0.00,,---,0.00,VWS V14.01,2013-02-25 01:47:00,
2013-02-24 19:51:00,49.3,32.9,29.96,East,97,0.0,2.0,53,0.00,,---,0.00,VWS V14.01,2013-02-25 01:51:00,
2013-02-24 19:52:00,49.2,32.8,29.96,East,97,0.0,2.0,53,0.00,,---,0.00,VWS V14.01,2013-02-25 01:52:00,
2013-02-24 19:53:00,49.2,32.8,29.96,East,97,0.0,2.0,53,0.00,,---,0.00,VWS V14.01,2013-02-25 01:53:00,
2013-02-24 19:57:00,49.0,32.6,29.96,East,98,1.0,2.0,53,0.00,,---,0.00,VWS V14.01,2013-02-25 01:57:00,
2013-02-24 19:58:00,49.0,32.6,29.95,East,97,0.0,2.0,53,0.00,,---,0.00,VWS V14.01,2013-02-25 01:58:00,
2013-02-24 20:02:00,49.1,32.7,29.96,ENE,77,0.0,2.0,53,0.00,,---,0.00,VWS V14.01,2013-02-25 02:02:00,
2013-02-24 20:03:00,49.2,32.8,29.96,ENE,77,0.0,2.0,53,0.00,,---,0.00,VWS V14.01,2013-02-25 02:03:00,
2013-02-24 20:07:00,49.2,32.8,29.95,East,79,1.0,2.0,53,0.00,,---,0.00,VWS V14.01,2013-02-25 02:07:00,
2013-02-24 20:08:00,49.2,32.8,29.95,ESE,106,1.0,3.0,53,0.00,,---,0.00,VWS V14.01,2013-02-25 02:08:00,
2013-02-24 20:12:00,49.2,32.8,29.95,East,89,2.0,3.0,53,0.00,,---,0.00,VWS V14.01,2013-02-25 02:12:00,
2013-02-24 20:13:00,49.2,32.8,29.95,East,89,0.0,3.0,53,0.00,,---,0.00,VWS V14.01,2013-02-25 02:13:00,
2013-02-24 20:17:00,49.2,32.3,29.95,ESE,115,0.0,2.0,52,0.00,,---,0.00,VWS V14.01,2013-02-25 02:17:00,
2013-02-24 20:18:00,49.2,32.8,29.95,East,93,2.0,2.0,53,0.00,,---,0.00,VWS V14.01,2013-02-25 02:18:00,
2013-02-24 20:22:00,49.1,32.7,29.95,SE,141,2.0,4.0,53,0.00,,---,0.00,VWS V14.01,2013-02-25 02:22:00,
2013-02-24 20:23:00,49.1,32.7,29.95,East,101,1.0,4.0,53,0.00,,---,0.00,VWS V14.01,2013-02-25 02:23:00,
2013-02-24 20:28:00,49.1,32.2,29.95,East,96,1.0,4.0,52,0.00,,---,0.00,VWS V14.01,2013-02-25 02:28:00,
2013-02-24 20:33:00,49.0,32.2,29.94,East,87,0.0,3.0,52,0.00,,---,0.00,VWS V14.01,2013-02-25 02:33:00,
2013-02-24 20:38:00,48.8,32.0,29.94,East,100,1.0,3.0,52,0.00,,---,0.00,VWS V14.01,2013-02-25 02:38:00,
2013-02-24 20:43:00,48.7,31.9,29.94,East,82,2.0,4.0,52,0.00,,---,0.00,VWS V14.01,2013-02-25 02:43:00,
2013-02-24 20:44:00,48.7,31.9,29.94,East,82,2.0,4.0,52,0.00,,---,0.00,VWS V14.01,2013-02-25 02:44:00,
2013-02-24 20:48:00,48.7,32.3,29.94,SSE,155,1.0,2.0,53,0.00,,---,0.00,VWS V14.01,2013-02-25 02:48:00,
2013-02-24 20:49:00,48.6,31.8,29.94,SSE,154,1.0,2.0,52,0.00,,---,0.00,VWS V14.01,2013-02-25 02:49:00,
2013-02-24 20:53:00,48.5,31.7,29.94,East,85,2.0,4.0,52,0.00,,---,0.00,VWS V14.01,2013-02-25 02:53:00,
2013-02-24 20:54:00,48.5,31.7,29.94,East,92,2.0,4.0,52,0.00,,---,0.00,VWS V14.01,2013-02-25 02:54:00,
2013-02-24 20:58:00,48.6,31.8,29.94,East,87,3.0,4.0,52,0.00,,---,0.00,VWS V14.01,2013-02-25 02:58:00,
2013-02-24 20:59:00,48.6,31.8,29.94,East,101,1.0,4.0,52,0.00,,---,0.00,VWS V14.01,2013-02-25 02:59:00,
2013-02-24 21:03:00,48.6,31.8,29.94,ESE,109,0.0,1.0,52,0.00,,---,0.00,VWS V14.01,2013-02-25 03:03:00,
2013-02-24 21:04:00,48.6,31.8,29.94,ESE,110,0.0,1.0,52,0.00,,---,0.00,VWS V14.01,2013-02-25 03:04:00,
2013-02-24 21:08:00,48.5,31.7,29.94,ESE,114,1.0,4.0,52,0.00,,---,0.00,VWS V14.01,2013-02-25 03:08:00,
2013-02-24 21:09:00,48.5,31.7,29.94,ESE,104,1.0,4.0,52,0.00,,---,0.00,VWS V14.01,2013-02-25 03:09:00,
2013-02-24 21:10:00,48.5,31.7,29.94,ESE,104,2.0,4.0,52,0.00,,---,0.00,VWS V14.01,2013-02-25 03:10:00,
2013-02-24 21:13:00,48.5,31.7,29.93,East,84,3.0,4.0,52,0.00,,---,0.00,VWS V14.01,2013-02-25 03:13:00,
2013-02-24 21:14:00,48.5,31.7,29.93,East,82,4.0,4.0,52,0.00,,---,0.00,VWS V14.01,2013-02-25 03:14:00,
2013-02-24 21:15:00,48.4,31.6,29.93,ENE,63,1.0,4.0,52,0.00,,---,0.00,VWS V14.01,2013-02-25 03:15:00,
2013-02-24 21:18:00,48.5,31.2,29.94,ESE,112,0.0,3.0,51,0.00,,---,0.00,VWS V14.01,2013-02-25 03:18:00,
2013-02-24 21:19:00,48.5,31.7,29.94,ESE,112,0.0,3.0,52,0.00,,---,0.00,VWS V14.01,2013-02-25 03:19:00,
2013-02-24 21:20:00,48.5,31.2,29.94,ESE,112,0.0,3.0,51,0.00,,---,0.00,VWS V14.01,2013-02-25 03:20:00,
2013-02-24 21:23:00,48.3,31.5,29.94,ESE,112,0.0,3.0,52,0.00,,---,0.00,VWS V14.01,2013-02-25 03:23:00,
2013-02-24 21:24:00,48.3,31.5,29.94,ESE,112,0.0,3.0,52,0.00,,---,0.00,VWS V14.01,2013-02-25 03:24:00,
2013-02-24 21:25:00,48.3,31.5,29.94,East,98,1.0,3.0,52,0.00,,---,0.00,VWS V14.01,2013-02-25 03:25:00,
2013-02-24 21:28:00,48.2,31.4,29.93,ESE,119,1.0,3.0,52,0.00,,---,0.00,VWS V14.01,2013-02-25 03:28:00,
2013-02-24 21:29:00,48.1,31.3,29.93,ENE,74,2.0,3.0,52,0.00,,---,0.00,VWS V14.01,2013-02-25 03:29:00,
2013-02-24 21:30:00,48.1,31.3,29.93,East,87,1.0,3.0,52,0.00,,---,0.00,VWS V14.01,2013-02-25 03:30:00,
2013-02-24 21:34:00,48.1,31.3,29.93,East,100,2.0,5.0,52,0.00,,---,0.00,VWS V14.01,2013-02-25 03:34:00,
2013-02-24 21:35:00,48.1,31.3,29.93,East,100,0.0,5.0,52,0.00,,---,0.00,VWS V14.01,2013-02-25 03:35:00,
2013-02-24 21:39:00,48.2,31.4,29.92,East,92,3.0,5.0,52,0.00,,---,0.00,VWS V14.01,2013-02-25 03:39:00,
2013-02-24 21:40:00,48.2,30.9,29.92,ESE,112,5.0,5.0,51,0.00,,---,0.00,VWS V14.01,2013-02-25 03:40:00,
2013-02-24 21:44:00,48.4,31.1,29.92,SE,134,2.0,5.0,51,0.00,,---,0.00,VWS V14.01,2013-02-25 03:44:00,
2013-02-24 21:45:00,48.4,31.1,29.92,East,90,2.0,3.0,51,0.00,,---,0.00,VWS V14.01,2013-02-25 03:45:00,
2013-02-24 21:49:00,48.4,31.1,29.92,East,96,2.0,6.0,51,0.00,,---,0.00,VWS V14.01,2013-02-25 03:49:00,
2013-02-24 21:50:00,48.3,31.0,29.93,East,87,1.0,6.0,51,0.00,,---,0.00,VWS V14.01,2013-02-25 03:50:00,
2013-02-24 21:54:00,48.3,31.0,29.93,SE,127,1.0,6.0,51,0.00,,---,0.00,VWS V14.01,2013-02-25 03:54:00,
2013-02-24 21:55:00,48.2,30.9,29.93,SE,131,1.0,6.0,51,0.00,,---,0.00,VWS V14.01,2013-02-25 03:55:00,
2013-02-24 21:59:00,48.1,31.3,29.93,SE,131,1.0,6.0,52,0.00,,---,0.00,VWS V14.01,2013-02-25 03:59:00,
2013-02-24 22:00:00,48.0,30.8,29.93,SE,134,0.0,1.0,51,0.00,,---,0.00,VWS V14.01,2013-02-25 04:00:00,
2013-02-24 22:01:00,47.9,31.1,29.93,SE,134,0.0,1.0,52,0.00,,---,0.00,VWS V14.01,2013-02-25 04:01:00,
2013-02-24 22:04:00,47.7,31.0,29.93,SE,127,1.0,1.0,52,0.00,,---,0.00,VWS V14.01,2013-02-25 04:04:00,
2013-02-24 22:06:00,47.6,30.9,29.92,East,87,1.0,2.0,52,0.00,,---,0.00,VWS V14.01,2013-02-25 04:06:00,
2013-02-24 22:09:00,47.4,31.1,29.92,East,98,1.0,2.0,53,0.00,,---,0.00,VWS V14.01,2013-02-25 04:09:00,
2013-02-24 22:10:00,47.3,31.0,29.92,East,97,0.0,2.0,53,0.00,,---,0.00,VWS V14.01,2013-02-25 04:10:00,
2013-02-24 22:11:00,47.3,31.0,29.92,East,97,0.0,2.0,53,0.00,,---,0.00,VWS V14.01,2013-02-25 04:11:00,
2013-02-24 22:14:00,47.1,30.9,29.92,ENE,74,0.0,4.0,53,0.00,,---,0.00,VWS V14.01,2013-02-25 04:14:00,
2013-02-24 22:15:00,47.1,30.9,29.92,ENE,74,0.0,4.0,53,0.00,,---,0.00,VWS V14.01,2013-02-25 04:15:00,
2013-02-24 22:16:00,47.0,30.8,29.92,ENE,74,0.0,0.0,53,0.00,,---,0.00,VWS V14.01,2013-02-25 04:16:00,
2013-02-24 22:17:00,47.0,30.8,29.92,ESE,105,1.0,1.0,53,0.00,,---,0.00,VWS V14.01,2013-02-25 04:17:00,
2013-02-24 22:19:00,46.8,30.6,29.92,ESE,105,0.0,1.0,53,0.00,,---,0.00,VWS V14.01,2013-02-25 04:19:00,
2013-02-24 22:20:00,46.8,31.0,29.92,ESE,104,2.0,2.0,54,0.00,,---,0.00,VWS V14.01,2013-02-25 04:20:00,
2013-02-24 22:21:00,46.7,30.5,29.92,ESE,104,0.0,2.0,53,0.00,,---,0.00,VWS V14.01,2013-02-25 04:21:00,
2013-02-24 22:22:00,46.7,30.5,29.92,ESE,104,0.0,2.0,53,0.00,,---,0.00,VWS V14.01,2013-02-25 04:22:00,
2013-02-24 22:24:00,46.5,30.3,29.92,ESE,104,0.0,2.0,53,0.00,,---,0.00,VWS V14.01,2013-02-25 04:24:00,
2013-02-24 22:25:00,46.5,30.8,29.92,ESE,104,0.0,2.0,54,0.00,,---,0.00,VWS V14.01,2013-02-25 04:25:00,
2013-02-24 22:26:00,46.5,30.8,29.92,ESE,104,0.0,2.0,54,0.00,,---,0.00,VWS V14.01,2013-02-25 04:26:00,
2013-02-24 22:27:00,46.4,30.7,29.92,ESE,104,0.0,2.0,54,0.00,,---,0.00,VWS V14.01,2013-02-25 04:27:00,
2013-02-24 22:29:00,46.2,30.5,29.92,ESE,105,0.0,2.0,54,0.00,,---,0.00,VWS V14.01,2013-02-25 04:29:00,
2013-02-24 22:30:00,46.1,30.9,29.92,ESE,105,0.0,2.0,55,0.00,,---,0.00,VWS V14.01,2013-02-25 04:30:00,
2013-02-24 22:31:00,46.1,30.9,29.92,ESE,105,1.0,1.0,55,0.00,,---,0.00,VWS V14.01,2013-02-25 04:31:00,
2013-02-24 22:32:00,46.0,30.8,29.92,ESE,105,0.0,1.0,55,0.00,,---,0.00,VWS V14.01,2013-02-25 04:32:00,
2013-02-24 22:34:00,45.9,30.7,29.92,East,89,0.0,2.0,55,0.00,,---,0.00,VWS V14.01,2013-02-25 04:34:00,
2013-02-24 22:35:00,45.9,30.7,29.92,East,90,1.0,2.0,55,0.00,,---,0.00,VWS V14.01,2013-02-25 04:35:00,
2013-02-24 22:37:00,45.9,30.7,29.92,East,87,2.0,3.0,55,0.00,,---,0.00,VWS V14.01,2013-02-25 04:37:00,
2013-02-24 22:39:00,46.0,30.8,29.91,ENE,60,1.0,4.0,55,0.00,,---,0.00,VWS V14.01,2013-02-25 04:39:00,
2013-02-24 22:40:00,46.0,30.8,29.91,ENE,60,1.0,4.0,55,0.00,,---,0.00,VWS V14.01,2013-02-25 04:40:00,
2013-02-24 22:42:00,45.9,30.7,29.91,ENE,64,1.0,4.0,55,0.00,,---,0.00,VWS V14.01,2013-02-25 04:42:00,
2013-02-24 22:44:00,45.9,30.7,29.91,SE,124,0.0,4.0,55,0.00,,---,0.00,VWS V14.01,2013-02-25 04:44:00,
2013-02-24 22:45:00,45.9,30.7,29.91,SE,124,1.0,1.0,55,0.00,,---,0.00,VWS V14.01,2013-02-25 04:45:00,
2013-02-24 22:46:00,45.9,30.7,29.91,East,84,3.0,3.0,55,0.00,,---,0.00,VWS V14.01,2013-02-25 04:46:00,
2013-02-24 22:47:00,45.9,30.7,29.91,SE,127,1.0,3.0,55,0.00,,---,0.00,VWS V14.01,2013-02-25 04:47:00,
2013-02-24 22:50:00,45.8,30.6,29.91,East,93,1.0,3.0,55,0.00,,---,0.00,VWS V14.01,2013-02-25 04:50:00,
2013-02-24 22:51:00,45.8,30.6,29.91,East,94,1.0,3.0,55,0.00,,---,0.00,VWS V14.01,2013-02-25 04:51:00,
2013-02-24 22:52:00,45.8,30.6,29.91,ESE,114,0.0,3.0,55,0.00,,---,0.00,VWS V14.01,2013-02-25 04:52:00,
2013-02-24 22:55:00,45.7,30.5,29.91,East,89,1.0,5.0,55,0.00,,---,0.00,VWS V14.01,2013-02-25 04:55:00,
2013-02-24 22:56:00,45.8,30.6,29.91,East,79,4.0,5.0,55,0.00,,---,0.00,VWS V14.01,2013-02-25 04:56:00,
2013-02-24 22:57:00,45.8,30.6,29.91,ENE,74,1.0,5.0,55,0.00,,---,0.00,VWS V14.01,2013-02-25 04:57:00,
2013-02-24 23:00:00,45.8,30.6,29.91,East,85,1.0,5.0,55,0.00,,---,0.00,VWS V14.01,2013-02-25 05:00:00,
2013-02-24 23:05:00,45.8,30.6,29.91,ENE,64,1.0,4.0,55,0.00,,---,0.00,VWS V14.01,2013-02-25 05:05:00,
2013-02-24 23:10:00,45.8,31.0,29.91,ENE,76,2.0,4.0,56,0.00,,---,0.00,VWS V14.01,2013-02-25 05:10:00,
2013-02-24 23:15:00,45.9,31.1,29.92,East,93,3.0,4.0,56,0.00,,---,0.00,VWS V14.01,2013-02-25 05:15:00,
2013-02-24 23:20:00,46.0,31.2,29.91,East,100,1.0,3.0,56,0.00,,---,0.00,VWS V14.01,2013-02-25 05:20:00,
2013-02-24 23:25:00,46.2,31.4,29.90,East,87,1.0,5.0,56,0.00,,---,0.00,VWS V14.01,2013-02-25 05:25:00,
2013-02-24 23:30:00,46.3,31.5,29.90,ESE,121,2.0,6.0,56,0.00,,---,0.00,VWS V14.01,2013-02-25 05:30:00,
2013-02-24 23:35:00,46.5,31.2,29.92,East,80,1.0,4.0,55,0.00,,---,0.00,VWS V14.01,2013-02-25 05:35:00,
2013-02-24 23:40:00,46.6,31.3,29.92,ESE,114,1.0,5.0,55,0.00,,---,0.00,VWS V14.01,2013-02-25 05:40:00,
2013-02-24 23:45:00,46.7,31.4,29.92,East,97,1.0,1.0,55,0.00,,---,0.00,VWS V14.01,2013-02-25 05:45:00,
2013-02-24 23:50:00,46.6,31.3,29.91,SSE,151,1.0,4.0,55,0.00,,---,0.00,VWS V14.01,2013-02-25 05:50:00,
2013-02-24 23:51:00,46.6,31.3,29.91,SSE,151,1.0,4.0,55,0.00,,---,0.00,VWS V14.01,2013-02-25 05:51:00,
2013-02-24 23:55:00,46.6,31.3,29.91,SE,137,2.0,5.0,55,0.00,,---,0.00,VWS V14.01,2013-02-25 05:55:00,
2013-02-24 23:56:00,46.6,31.3,29.91,SE,134,1.0,5.0,55,0.00,,---,0.00,VWS V14.01,2013-02-25 05:56:00,